GFSNE_sfc_temp_048.txt.gz
Temp
50 50 50 52 50 51 50 48 42 37 41 48 48 54 54 54 53 52 51 49 47 46 45 45 46 47 48 48 48 49 50 50 50 53 58 58 58 62
52 50 50 50 50 50 50 49 48 43 39 47 48 50 51 52 51 51 50 48 46 46 44 44 44 45 45 46 46 47 47 48 48 49 55 58 59 59
50 49 48 49 48 49 48 48 46 45 40 44 48 49 48 48 49 48 49 50 51 46 44 43 43 43 43 43 44 44 45 45 46 46 48 52 58 58
48 48 47 49 46 47 47 45 45 45 42 39 44 44 44 46 46 45 46 49 49 48 43 42 42 42 42 42 42 43 43 43 43 43 44 45 49 56
47 46 46 45 44 45 45 43 43 44 42 38 38 41 42 44 43 43 43 44 48 46 44 42 42 42 42 41 42 42 42 42 41 41 42 42 43 46
46 45 45 44 43 42 41 41 42 41 39 35 35 36 39 41 41 39 40 43 43 47 46 43 42 44 43 41 41 41 42 42 42 41 40 40 41 42
45 45 44 41 37 36 37 38 38 36 35 33 33 34 35 37 37 40 39 40 42 43 42 44 46 48 49 44 43 43 42 42 42 42 41 40 40 41
42 43 43 40 39 34 34 33 33 32 31 30 31 31 34 35 37 36 36 35 33 43 39 38 44 43 46 50 41 40 40 41 42 42 41 40 40 40
41 41 41 41 38 39 35 33 33 32 30 32 30 32 33 35 36 35 35 35 35 39 39 35 41 39 43 47 42 40 39 40 40 41 41 41 40 39
41 40 39 38 38 33 32 32 34 35 35 36 35 34 35 37 36 35 34 35 37 39 40 32 37 37 42 44 41 40 39 39 39 40 41 41 40 39
39 40 38 36 33 30 30 29 31 33 36 34 34 33 33 34 35 33 32 31 30 33 39 35 37 36 40 41 42 40 39 39 39 39 39 40 40 39
38 39 35 33 29 30 29 28 26 30 32 32 33 35 36 37 34 35 35 31 32 32 39 33 37 39 34 42 43 44 43 37 37 38 39 39 40 47
34 36 37 30 29 29 28 28 27 29 29 30 31 32 33 36 37 37 36 33 32 33 40 39 38 38 37 35 41 43 44 41 43 41 37 39 40 42
32 35 34 29 28 27 28 27 27 28 29 28 28 28 30 31 33 35 35 36 36 34 39 38 35 35 34 35 36 41 42 42 43 41 42 41 38 39
33 31 28 28 28 29 28 26 27 30 28 27 26 27 29 31 32 34 36 36 35 35 37 36 35 35 35 35 35 39 38 40 40 39 39 39 39 42
33 33 30 26 28 29 31 31 30 28 26 26 26 28 31 31 31 33 32 34 32 34 34 35 34 34 34 36 37 36 39 36 39 39 37 37 39 42
28 31 31 31 30 31 31 30 30 29 27 27 26 27 28 29 30 32 32 33 32 33 33 35 35 34 34 33 34 39 38 38 39 37 39 37 39 39
30 30 29 28 27 28 28 28 29 27 26 26 26 26 26 26 27 30 31 30 30 31 32 34 35 34 34 34 33 35 39 37 38 37 36 33 34 38
28 30 29 28 28 29 29 28 27 27 25 26 25 26 26 26 26 27 28 28 28 31 32 34 33 32 32 29 34 31 34 36 35 33 34 33 32 35
29 29 29 29 29 29 29 28 27 26 26 25 24 24 24 25 26 26 26 25 26 29 31 34 33 31 29 28 29 31 30 32 32 32 33 35 37 31
31 31 31 30 30 30 28 26 25 25 23 23 24 23 23 24 25 26 27 26 26 29 27 28 32 29 32 32 28 30 30 30 31 31 32 33 33 34
31 31 32 32 30 29 28 26 26 26 25 25 24 24 24 23 23 24 25 25 27 27 27 30 32 32 31 31 30 29 30 31 30 30 28 28 29 30
31 31 31 30 30 29 28 27 26 25 25 24 24 24 23 22 24 24 25 25 26 26 27 28 31 33 32 32 30 31 29 30 31 32 30 28 29 29

GFSNE_sfc_temp_051.txt.gz
Temp
52 50 51 50 51 52 50 48 43 37 40 47 49 53 55 55 53 53 52 50 48 47 46 47 47 47 47 48 48 49 49 50 50 51 52 51 54 59
52 51 51 51 51 50 49 49 48 45 40 47 49 51 52 53 53 51 51 49 47 46 46 46 46 46 46 46 46 46 47 47 48 48 50 50 51 57
51 49 49 50 48 48 49 48 47 47 41 44 48 50 48 48 49 50 50 49 50 47 46 46 46 44 43 43 43 44 45 45 46 46 47 48 48 51
47 47 46 48 46 47 48 46 46 47 43 40 44 45 44 46 46 45 47 49 48 47 45 44 43 43 42 42 42 42 42 43 44 44 44 46 46 47
46 46 45 45 45 46 46 45 45 45 44 42 41 43 42 44 42 44 44 44 47 46 44 44 43 44 43 42 42 42 42 42 42 42 42 42 42 43
46 46 46 46 44 42 41 40 41 40 40 40 39 38 39 40 41 39 39 42 42 46 46 44 43 44 43 42 42 42 42 42 42 41 41 40 40 41
47 47 47 43 39 38 38 38 37 36 35 34 33 34 35 36 35 38 36 38 40 41 42 44 45 45 46 44 44 43 42 42 42 42 41 40 40 40
44 45 45 43 42 38 37 35 34 33 31 32 32 31 32 35 38 34 34 33 31 41 38 38 42 41 44 46 41 41 41 40 41 41 42 41 40 39
44 43 43 44 40 40 37 35 35 35 33 33 30 32 31 33 34 33 33 34 33 37 37 33 39 37 42 46 42 41 41 40 40 41 41 41 39 39
43 42 41 41 38 33 34 33 33 34 36 37 35 34 35 36 35 34 34 34 35 38 40 31 38 37 40 43 42 42 40 40 40 40 40 40 40 39
40 42 41 39 33 31 30 29 30 33 36 35 35 35 34 34 35 33 31 30 30 34 38 34 35 35 38 39 42 42 40 39 39 39 39 40 40 39
39 40 35 33 30 30 28 28 26 30 31 31 33 34 36 36 35 35 33 29 30 30 38 32 35 35 33 40 41 42 41 38 38 38 39 39 40 44
35 37 38 31 30 29 29 29 28 29 29 30 31 33 34 35 35 36 36 34 31 31 37 35 36 36 36 35 36 41 42 41 40 39 38 39 39 41
33 35 36 31 30 29 29 30 28 28 30 30 30 29 30 31 33 35 35 36 37 36 37 37 34 36 35 33 34 40 41 42 41 40 41 40 38 39
34 34 31 31 31 31 32 30 28 31 29 27 28 28 30 32 33 34 36 37 38 35 36 37 36 37 35 33 32 34 37 39 41 39 38 39 39 40
33 34 33 31 30 29 31 33 33 31 29 28 28 29 31 31 31 33 32 33 33 33 37 37 37 36 33 35 35 35 38 35 39 38 37 38 38 41
30 32 33 33 32 33 33 33 33 32 30 29 28 28 29 29 29 32 31 32 31 31 32 34 34 34 36 33 31 35 34 37 39 37 37 37 38 38
31 30 30 31 30 30 30 31 31 31 30 28 28 28 27 27 28 29 31 29 28 30 32 34 35 33 33 31 32 33 35 35 36 37 37 34 35 38
27 30 30 30 30 30 31 31 30 30 28 29 27 27 26 26 27 28 28 28 28 29 32 34 33 32 28 28 32 32 33 34 35 33 33 33 33 34
31 31 30 30 31 31 32 31 30 29 28 28 27 26 25 25 25 27 28 27 27 28 30 33 31 31 27 26 28 31 31 33 32 31 32 34 34 32
32 32 32 32 32 32 31 30 28 27 27 26 26 26 26 25 24 26 26 26 27 28 27 28 31 31 33 33 28 30 30 31 31 31 32 32 32 33
33 33 33 33 32 32 31 29 28 27 28 28 26 26 26 25 24 24 25 25 26 27 28 30 32 33 32 31 29 29 30 30 31 30 29 29 28 28
33 34 33 33 32 31 31 29 28 28 28 27 26 26 25 24 26 26 25 26 26 26 27 27 30 32 32 32 31 29 29 29 31 31 30 29 29 29

GFSNE_sfc_temp_054.txt.gz
Temp
43 44 43 44 44 43 42 40 34 30 33 39 38 43 43 43 45 45 43 48 47 47 47 47 48 49 49 49 48 49 49 49 49 50 50 51 52 53
45 43 42 42 43 43 40 40 38 35 32 38 40 40 42 47 46 43 44 47 46 46 46 46 47 47 48 48 47 47 47 48 48 48 49 49 50 52
42 42 42 43 41 40 39 39 38 38 34 37 40 41 38 38 40 40 42 42 42 45 44 45 45 45 46 45 44 45 45 46 46 46 47 48 49 50
41 42 41 46 40 39 38 37 36 37 34 32 36 37 36 37 36 36 41 44 42 45 44 44 44 44 43 43 43 43 43 43 43 44 45 45 46 48
43 41 41 39 37 37 34 34 34 38 34 32 32 35 35 34 34 35 37 37 43 45 44 44 44 44 43 42 42 42 42 42 41 41 42 42 43 44
41 41 41 40 35 33 34 31 34 30 31 30 30 31 32 33 33 32 32 34 34 42 42 41 42 43 44 43 42 42 42 42 42 41 41 40 40 41
42 43 41 39 41 35 34 30 29 28 28 28 27 28 29 29 29 32 30 30 32 34 34 36 37 38 39 41 43 43 43 43 42 41 41 41 40 40
37 38 38 40 37 37 36 35 32 26 26 26 26 26 27 29 30 29 28 27 25 33 30 31 33 34 37 39 42 39 39 41 41 41 41 41 40 39
35 35 37 42 35 32 34 34 32 34 32 29 26 26 27 28 29 27 26 26 26 30 30 28 32 31 35 41 41 41 42 41 41 40 40 40 41 39
35 35 34 33 28 30 28 27 28 30 31 33 29 28 29 30 30 30 28 27 29 31 33 26 30 30 30 31 40 41 41 40 40 40 39 39 40 39
34 34 35 32 31 32 27 24 26 28 34 35 34 34 34 35 34 30 26 26 24 28 32 30 28 28 30 30 31 40 41 40 40 39 39 39 40 39
32 33 32 29 30 30 22 20 21 25 26 26 28 30 32 32 34 32 29 26 26 24 30 29 30 29 26 29 32 32 32 39 39 39 39 39 39 36
30 29 29 31 31 31 30 23 23 26 26 25 26 27 29 29 30 29 28 25 25 25 32 32 29 29 27 29 31 33 32 30 30 32 38 39 39 38
29 29 30 32 32 31 29 30 31 27 24 21 23 25 25 26 28 30 31 31 32 32 34 34 30 29 27 27 28 32 34 32 31 28 28 34 38 39
29 31 32 32 32 30 32 32 27 23 23 17 21 23 25 28 29 29 31 31 31 34 34 33 32 29 27 26 26 30 32 29 29 28 27 30 28 27
29 30 28 27 26 26 25 27 25 24 21 19 18 23 25 25 26 28 27 28 28 30 33 32 32 31 27 26 29 28 31 30 29 26 26 26 28 30
26 25 24 26 26 25 25 25 24 24 21 19 18 20 23 25 25 27 27 27 25 26 28 32 33 32 30 31 29 29 30 32 32 30 28 25 27 31
24 22 21 22 26 23 21 22 22 22 22 21 19 19 19 22 23 25 27 26 24 25 26 29 30 30 31 29 31 29 31 32 32 30 29 30 31 33
25 22 22 26 24 26 23 22 20 21 22 21 19 17 18 21 21 23 25 25 23 25 26 28 28 27 24 23 27 32 29 29 28 25 27 27 30 30
27 25 25 26 28 25 24 23 21 19 19 20 15 17 14 15 19 21 22 21 21 23 25 26 27 25 22 22 24 25 32 26 26 26 27 29 28 32
28 27 28 28 28 25 23 23 19 16 16 12 14 16 18 16 14 20 20 20 20 24 22 23 25 28 27 26 24 25 23 32 29 25 27 24 28 25
28 28 29 29 28 27 25 24 21 18 17 18 15 12 19 13 13 14 17 18 21 20 22 25 28 29 28 27 26 22 26 23 28 30 30 28 20 23
29 30 30 30 28 27 24 22 24 18 18 17 15 15 12 11 15 14 15 18 21 20 20 20 26 28 27 28 26 25 20 20 22 23 20 29 30 30

GFSNE_sfc_temp_057.txt.gz
Temp
41 41 41 41 42 43 40 40 35 25 30 32 33 39 39 39 42 41 39 45 46 46 46 46 48 48 49 49 49 49 50 50 50 50 50 50 51 52
40 39 40 39 39 38 38 40 37 35 31 33 34 35 38 43 44 39 39 45 44 44 44 45 46 46 47 47 47 48 48 48 48 48 49 49 50 50
38 38 38 39 38 38 39 38 34 31 27 30 33 34 33 34 36 36 38 37 37 43 43 44 44 44 44 45 45 46 46 46 47 47 47 48 48 49
37 38 40 43 38 36 33 31 30 30 28 27 28 30 30 32 32 32 38 42 38 42 43 43 43 43 43 43 43 43 43 44 44 45 45 45 46 47
38 37 37 36 32 31 31 29 29 34 28 26 27 28 30 30 30 31 32 32 39 42 42 42 42 42 43 42 43 42 42 42 42 42 42 42 43 44
38 38 38 36 33 31 32 29 30 27 26 25 27 27 28 30 28 28 29 30 30 37 38 39 40 41 41 41 41 42 42 42 42 41 41 40 40 41
37 39 38 38 41 34 32 27 27 25 25 25 25 25 26 26 26 28 27 27 28 29 31 33 32 34 36 39 40 42 42 41 41 41 41 40 40 40
34 34 35 38 37 36 35 35 31 25 23 22 24 24 24 26 28 26 24 23 21 29 26 27 31 31 33 35 39 40 41 40 41 41 41 40 40 40
32 31 34 37 33 30 32 32 30 32 29 25 23 25 25 26 26 25 25 24 24 28 27 25 30 28 32 37 39 40 41 41 41 40 40 39 39 39
31 31 30 29 29 29 28 26 26 27 28 30 27 26 26 28 27 28 27 26 27 28 30 25 27 28 30 30 36 39 40 40 40 40 40 39 39 39
32 31 31 28 32 32 27 23 25 25 31 32 32 32 33 33 33 29 25 25 24 26 27 26 24 27 27 31 30 37 39 39 40 40 39 39 39 39
29 30 32 29 31 30 22 18 18 23 25 25 26 27 29 29 32 30 27 23 23 22 26 22 27 25 25 27 30 32 32 35 36 39 39 39 39 34
28 27 27 31 31 32 31 23 20 25 26 24 24 24 25 25 25 26 27 27 26 25 30 30 28 28 28 26 28 31 32 33 28 33 39 39 39 37
28 27 28 32 33 33 30 30 31 27 18 19 20 21 21 23 25 26 27 28 29 28 31 31 29 29 28 26 27 30 33 34 32 27 27 33 37 38
28 28 32 33 33 30 31 32 28 22 19 15 18 19 20 24 26 27 28 28 29 30 34 32 31 31 29 27 27 27 30 32 30 31 31 25 26 25
28 28 26 26 24 25 25 27 23 20 19 20 16 18 20 22 22 25 24 25 25 25 32 32 32 31 28 27 28 27 27 29 32 27 24 23 25 26
27 25 23 22 23 25 24 24 23 22 19 16 16 16 19 20 21 23 24 25 23 24 25 29 31 31 32 30 27 26 27 25 32 28 26 24 27 27
25 16 14 12 16 22 24 22 21 20 19 18 14 17 16 16 19 22 23 23 21 22 23 26 27 27 28 28 31 28 30 30 30 31 28 28 30 32
25 20 15 16 19 22 26 22 20 20 20 18 15 13 14 17 15 18 21 21 20 21 22 25 26 24 21 16 28 32 27 29 28 22 24 28 29 30
28 25 21 21 22 24 26 22 20 18 15 15 11 8 7 12 11 15 18 17 19 21 22 24 24 24 23 20 23 22 32 24 25 24 25 27 28 30
26 25 25 24 24 25 24 22 16 12 9 7 8 8 7 10 10 13 14 16 17 21 20 19 23 27 27 23 20 21 21 31 28 23 25 25 26 26
27 26 25 26 26 27 26 22 18 13 11 9 10 9 3 7 7 7 9 12 18 19 19 21 25 26 27 27 24 18 21 18 26 30 30 28 23 21
28 28 28 28 27 26 25 24 22 18 17 14 11 8 2 7 8 10 8 15 15 18 18 18 22 26 27 26 25 18 16 18 21 23 22 29 30 30

GFSNE_sfc_temp_060.txt.gz
Temp
37 37 37 38 38 38 39 38 32 25 26 30 31 35 35 37 39 38 37 43 45 44 45 45 46 47 48 48 49 49 49 50 50 51 52 52 51 51
39 37 37 38 37 36 39 39 37 33 27 30 30 32 34 39 40 36 36 43 42 43 43 44 44 45 45 46 46 47 47 48 49 49 50 50 50 51
37 37 38 38 37 40 38 37 33 33 27 28 30 30 29 29 33 34 35 34 35 41 42 42 43 43 43 43 44 45 45 46 46 47 48 49 49 49
37 36 37 42 35 33 31 30 29 29 27 25 26 26 27 28 29 28 34 38 34 39 41 41 41 41 42 41 42 42 43 43 44 45 45 46 47 47
37 36 36 35 32 30 30 29 28 33 27 25 25 26 26 27 28 30 30 30 35 39 39 39 39 40 41 41 41 41 41 42 42 42 42 43 43 44
37 36 36 35 32 31 31 28 29 26 26 24 25 26 25 28 27 26 26 28 29 34 35 36 37 38 39 39 39 40 41 41 41 41 41 40 40 41
35 37 37 36 39 34 31 27 27 25 24 24 24 24 25 24 24 26 26 26 27 29 28 29 29 31 32 35 37 39 40 41 41 41 41 40 40 40
34 34 35 37 37 37 36 34 30 25 23 21 21 21 23 25 25 23 23 22 21 26 24 26 29 28 30 32 36 37 38 39 40 41 41 40 40 39
31 31 33 35 33 31 33 32 31 31 28 23 20 21 22 24 25 23 24 24 24 27 27 24 27 26 30 34 36 37 38 39 40 40 40 39 39 38
30 31 30 29 29 29 28 27 27 27 27 28 25 24 25 26 26 28 27 26 27 27 27 22 26 26 29 30 36 37 37 38 39 39 40 39 39 38
32 31 30 28 31 33 28 25 26 26 31 32 32 32 32 32 31 27 24 23 21 24 25 24 24 25 28 28 30 36 37 38 38 37 37 39 39 38
30 30 33 29 31 31 24 21 20 23 24 25 26 27 28 27 30 26 25 22 23 22 24 24 26 25 23 24 27 29 29 35 37 37 36 39 39 33
29 28 28 32 32 32 32 24 21 25 25 25 24 23 23 23 24 25 25 23 22 22 28 28 26 27 27 27 25 27 29 33 33 32 36 39 39 36
28 29 28 32 33 32 31 30 31 27 21 19 19 21 20 21 22 24 26 26 26 26 28 28 27 28 28 25 24 27 31 32 32 27 25 32 37 38
30 29 31 32 33 31 32 32 28 23 20 13 18 18 19 21 24 25 26 27 27 27 30 29 29 28 29 28 26 25 26 31 32 32 30 25 25 24
29 29 28 27 22 23 23 27 24 21 20 19 17 17 19 20 19 22 22 23 23 21 28 29 28 28 27 30 28 28 28 26 29 31 24 25 24 24
30 28 26 25 24 23 23 23 23 23 20 17 15 15 17 18 18 19 21 22 21 21 22 26 29 29 30 29 26 26 27 29 30 28 26 23 25 25
28 21 21 20 20 21 20 21 22 21 20 18 14 16 15 15 15 18 20 18 19 20 20 23 26 25 24 27 30 26 27 29 30 29 27 30 30 32
28 25 23 21 19 21 21 21 21 21 20 20 18 16 14 15 12 15 16 18 18 19 20 21 23 22 21 10 26 32 25 27 26 24 25 29 28 28
28 26 26 23 21 21 22 22 22 20 17 17 15 10 4 9 10 13 14 8 16 19 21 21 20 21 20 21 21 21 31 24 24 24 26 27 28 30
27 27 27 27 24 23 23 22 21 19 16 11 12 8 2 9 8 10 10 10 11 20 18 18 21 24 24 25 19 19 20 30 28 23 25 25 25 25
28 27 27 26 26 25 24 23 21 17 15 13 9 5 1 5 6 5 4 7 14 15 18 20 23 25 26 26 24 18 19 19 26 29 29 27 23 22
29 28 27 27 27 26 26 25 23 22 21 19 14 12 1 5 6 5 5 11 12 12 16 17 20 24 24 25 24 20 18 20 21 23 22 29 30 30

GFSNE_sfc_temp_063.txt.gz
Temp
37 36 36 37 36 36 37 37 35 30 25 29 30 34 35 34 37 35 34 40 43 43 43 44 45 45 46 46 47 48 49 49 50 50 51 51 52 53
37 36 35 35 36 35 35 35 33 31 29 32 31 32 33 36 36 33 33 40 39 40 41 42 43 44 44 44 45 45 46 47 48 48 49 50 51 52
36 35 36 36 35 36 37 35 34 30 26 28 29 29 28 28 30 29 31 31 32 39 40 40 41 41 42 42 42 43 43 44 45 46 47 48 49 51
36 35 36 40 35 33 31 30 29 28 27 25 26 26 26 27 27 27 32 35 31 36 38 39 39 40 40 40 40 41 41 42 42 43 45 45 46 48
36 35 35 34 32 30 29 29 28 32 27 25 24 25 25 26 26 28 28 29 33 37 37 37 38 38 38 39 39 40 40 40 40 41 42 42 43 44
35 35 34 33 32 32 31 29 29 27 26 24 24 25 24 26 25 24 25 27 28 33 34 34 35 36 37 37 38 38 39 40 40 40 40 40 40 41
33 35 35 38 39 35 33 29 27 25 24 23 23 22 22 22 22 25 23 24 26 27 27 28 28 30 31 33 35 37 37 38 38 40 40 40 40 40
31 32 35 35 35 38 37 34 29 25 23 21 21 20 20 22 20 22 22 21 20 26 24 26 28 27 29 30 34 36 37 38 38 39 39 40 40 39
30 30 31 35 34 32 34 34 33 32 28 23 19 20 18 22 23 22 22 23 23 26 25 25 27 25 29 32 35 36 37 38 38 38 39 39 39 38
33 31 30 30 30 30 28 27 27 28 28 28 24 23 24 25 24 26 25 25 25 26 25 21 26 25 28 29 34 36 37 38 38 38 38 38 38 38
32 31 31 29 32 34 28 25 26 27 31 32 32 32 32 32 30 21 20 20 19 22 25 23 22 25 27 28 29 35 37 38 38 38 38 38 38 37
29 31 33 31 32 32 24 21 20 24 25 25 25 27 28 27 29 25 20 19 20 19 23 21 24 25 22 24 25 26 29 33 36 37 38 38 37 34
29 29 29 32 33 33 32 24 22 26 25 24 24 23 24 23 23 23 23 20 20 21 26 26 22 25 26 26 24 26 26 29 31 32 35 35 36 36
29 29 29 32 33 33 31 31 31 27 23 22 20 20 20 21 22 22 24 24 24 24 27 26 23 25 24 24 25 25 26 30 31 32 31 30 35 38
31 31 32 32 32 31 32 31 28 23 21 15 18 19 19 22 24 24 25 25 25 26 29 26 24 25 25 24 26 27 27 29 31 28 32 30 25 25
31 32 30 29 29 29 26 28 26 21 21 20 18 17 18 20 19 21 20 21 20 20 27 27 26 26 25 28 29 28 28 26 28 29 27 29 28 24
28 28 27 27 26 26 25 25 24 21 19 17 15 16 17 18 17 18 18 19 17 18 20 24 27 28 26 28 23 26 27 29 30 30 27 26 25 30
28 27 26 26 24 24 24 23 22 20 22 19 15 16 16 16 14 16 18 15 15 17 18 21 22 22 23 25 30 25 26 27 29 27 27 27 27 31
29 26 25 25 24 24 23 23 22 21 22 19 18 16 17 15 11 13 14 14 14 17 18 21 20 19 18 10 24 31 25 26 26 23 26 23 27 28
29 27 25 23 25 24 23 22 23 22 18 18 17 17 13 11 9 12 12 6 10 16 18 20 19 19 18 17 19 20 29 25 19 21 21 25 27 30
28 28 28 27 25 25 24 23 22 21 17 13 17 16 10 10 8 10 9 8 8 17 15 16 20 24 23 23 17 18 20 29 29 25 24 22 22 22
29 28 28 28 27 26 25 24 21 19 17 16 15 15 11 7 8 5 1 5 11 11 14 18 21 24 24 25 24 21 20 19 26 29 28 28 22 18
27 29 29 28 27 27 26 25 24 22 20 19 19 17 11 4 8 5 3 8 11 11 11 13 19 22 22 24 23 20 19 19 21 22 23 28 29 29

GFSNE_sfc_temp_066.txt.gz
Temp
37 38 37 37 37 37 38 37 36 32 31 32 33 37 38 37 37 37 35 38 40 41 41 42 43 44 45 45 46 47 47 48 49 49 50 51 52 52
37 36 36 36 36 36 36 36 35 32 30 31 33 34 35 37 36 35 34 38 37 38 39 40 41 42 42 43 44 44 45 46 47 47 48 49 50 51
37 36 36 36 35 35 35 34 33 34 30 31 31 32 32 32 32 32 33 33 33 36 37 38 39 40 40 41 41 42 42 43 44 45 46 47 48 49
37 35 35 39 34 34 32 32 31 30 29 27 29 29 29 30 30 29 32 34 33 35 37 38 38 38 39 39 39 39 40 41 41 42 43 44 45 47
36 35 34 33 32 32 31 30 31 33 30 28 27 28 28 29 28 29 30 31 33 36 36 36 36 36 37 38 38 38 39 39 40 40 40 41 42 43
35 34 34 33 32 32 32 32 31 29 28 27 26 26 27 28 27 26 26 30 29 32 33 33 35 35 36 36 36 37 38 38 39 39 39 39 39 40
34 34 34 35 38 35 33 31 30 27 26 25 25 25 25 24 24 26 24 26 27 29 29 30 32 32 32 34 35 36 36 37 38 38 39 39 39 39
32 32 32 36 34 37 37 36 31 28 25 23 24 23 24 24 24 23 23 22 21 29 27 28 31 30 32 33 34 35 36 37 38 38 39 39 39 39
31 31 32 34 34 32 34 35 33 33 28 26 23 24 21 24 25 23 24 24 24 28 27 24 29 27 32 33 34 35 36 37 37 38 38 38 38 38
30 30 30 31 32 31 31 29 29 29 30 30 27 26 25 27 26 27 25 25 26 28 29 21 28 27 30 32 34 35 36 36 37 38 38 38 38 37
31 30 30 30 32 35 29 26 27 28 32 33 33 31 32 32 31 25 22 21 19 23 28 24 26 26 29 30 32 35 36 37 37 38 38 38 38 38
32 30 33 31 32 33 29 25 22 26 27 27 27 29 30 29 30 27 23 19 20 19 27 23 25 26 23 30 31 33 33 33 35 36 37 38 38 37
31 29 30 32 33 33 33 26 25 28 26 26 26 26 26 26 26 26 26 22 20 20 27 26 25 25 25 26 30 32 32 32 33 34 34 35 36 36
31 31 31 33 33 34 33 31 31 28 25 23 22 22 22 23 25 25 26 26 26 25 28 26 23 24 23 23 24 30 32 33 32 31 33 34 34 35
33 33 32 32 32 31 32 31 30 29 26 24 23 23 24 25 26 26 27 27 26 26 29 27 26 25 25 24 23 27 29 31 32 31 32 33 32 32
31 32 32 31 29 29 29 30 30 28 27 25 23 23 22 21 22 24 22 23 21 21 27 28 27 26 24 26 27 27 29 27 31 32 32 30 32 32
25 24 29 28 26 26 26 27 27 26 24 23 20 20 20 20 20 21 21 21 19 19 21 25 27 27 26 25 24 28 28 29 30 30 31 31 33 33
27 26 27 27 27 27 25 25 25 25 25 23 21 21 20 19 19 20 20 19 17 18 19 22 23 22 24 27 30 28 27 27 28 30 30 29 30 32
30 28 27 28 28 27 26 25 24 25 25 23 23 21 20 19 17 18 18 18 17 18 20 21 21 19 17 15 25 30 26 27 26 27 29 28 28 30
29 29 29 27 25 26 25 25 25 25 22 22 20 20 19 18 17 16 17 14 15 17 19 21 20 20 18 18 20 24 29 27 25 24 26 28 30 30
27 28 29 29 26 26 27 26 25 24 22 18 20 19 17 18 16 15 16 11 11 17 17 18 20 23 23 23 19 21 26 28 29 27 27 25 26 28
18 19 21 27 28 29 26 26 25 23 22 19 18 19 17 16 17 14 11 13 16 16 16 19 21 23 24 25 24 23 25 25 27 28 29 28 25 23
14 16 18 19 20 26 28 26 25 24 23 21 20 18 16 16 16 15 13 13 14 15 16 16 19 22 23 24 23 23 23 24 25 26 27 28 29 29

GFSNE_sfc_temp_069.txt.gz
Temp
50 50 50 51 51 50 49 48 43 39 43 46 45 48 49 50 47 47 46 43 40 40 40 40 42 43 43 44 45 46 47 48 48 49 49 50 51 52
50 49 49 50 49 49 49 48 47 44 39 47 47 47 48 48 47 45 44 40 40 38 38 39 39 40 41 42 43 44 45 45 46 47 48 49 49 50
49 48 48 49 48 48 48 47 46 44 39 44 46 46 44 44 45 45 43 43 43 39 37 38 38 39 40 40 40 41 42 43 44 44 46 47 48 48
48 47 46 48 46 47 47 46 45 45 40 39 45 43 42 44 42 41 41 42 42 40 37 37 38 38 38 38 38 39 39 40 40 41 42 44 45 46
48 47 47 47 46 47 46 45 45 44 42 39 40 42 42 42 41 41 40 40 41 39 37 37 37 37 37 37 38 38 38 38 39 39 40 40 42 43
47 46 46 46 45 45 45 44 41 39 40 38 39 40 40 41 39 37 36 39 39 40 39 37 36 37 37 37 37 37 37 38 38 38 39 38 39 40
47 46 46 45 41 41 42 42 41 40 39 38 38 38 38 38 36 37 34 36 37 39 39 40 40 40 41 39 39 38 37 37 37 38 38 38 38 39
45 47 46 41 41 38 37 37 39 41 39 38 37 36 37 37 36 34 33 31 29 40 36 35 39 38 40 41 38 37 36 37 37 38 38 38 38 38
46 45 44 43 40 42 38 35 36 34 33 38 34 36 34 35 35 33 33 33 32 36 35 31 37 35 40 41 38 37 36 37 37 37 37 38 38 38
44 44 43 43 42 40 40 39 40 40 39 38 38 38 38 37 36 35 33 32 34 36 37 27 35 34 38 39 38 37 37 37 38 38 38 38 38 38
43 43 42 42 39 36 36 34 37 38 37 35 35 34 33 32 33 34 29 29 28 31 35 31 33 33 35 37 41 38 37 37 37 37 37 38 38 38
41 40 36 36 36 34 34 33 31 35 37 36 37 36 35 36 33 34 33 28 29 28 36 29 31 32 28 37 38 39 40 38 37 37 37 37 37 40
39 38 37 35 33 34 34 35 33 37 35 35 35 35 35 35 36 36 35 32 29 29 35 32 29 30 29 29 34 37 38 39 40 40 38 37 37 37
35 39 39 35 34 33 34 34 33 32 32 32 32 32 32 33 35 36 36 35 35 32 35 31 26 27 28 27 28 36 37 38 38 36 36 38 37 36
36 35 35 35 33 33 33 32 31 33 31 29 30 31 34 35 35 34 34 34 33 33 33 32 31 31 29 25 26 30 30 35 38 36 37 37 36 37
35 35 33 32 32 33 33 33 34 34 32 31 31 33 33 31 30 33 31 31 29 29 32 32 31 31 28 30 31 30 33 29 35 35 35 35 38 39
33 33 33 32 30 31 31 32 34 33 32 32 31 30 29 30 30 32 30 30 27 28 28 31 33 32 31 29 27 32 32 32 34 33 34 33 37 38
32 31 31 31 30 31 30 30 32 32 33 32 30 30 29 29 29 30 30 28 27 28 28 30 30 29 30 33 32 30 31 31 33 32 32 31 34 35
31 32 31 31 31 32 32 30 30 33 32 31 30 30 29 29 28 28 28 28 27 28 28 29 28 26 24 23 32 31 30 31 31 31 33 33 31 34
24 24 27 31 32 32 32 31 32 32 30 30 29 29 29 29 28 27 28 26 26 27 27 29 28 27 24 23 24 29 30 28 29 29 31 33 35 32
21 22 23 24 24 27 31 31 31 31 30 29 29 29 29 29 28 28 28 24 23 25 25 26 29 27 28 27 23 27 30 29 29 29 29 30 30 33
17 17 19 20 21 22 24 25 31 30 29 29 29 29 29 28 28 27 26 26 25 26 26 28 29 30 29 27 27 28 29 31 31 29 29 28 28 27
15 16 17 18 19 20 20 21 20 26 29 29 29 28 28 27 28 28 27 25 25 24 25 25 27 29 28 27 26 28 27 28 31 31 31 29 29 29

GFSNE_sfc_temp_072.txt.gz
Temp
57 57 57 58 58 57 56 55 50 44 48 55 54 57 56 54 52 53 52 48 43 42 41 41 41 42 43 43 44 45 46 47 48 48 49 50 51 52
58 57 56 57 57 57 56 55 54 49 44 53 55 56 55 54 53 52 50 46 44 43 42 40 39 40 41 41 42 43 44 44 45 46 47 48 49 50
57 56 55 56 55 55 55 55 52 52 47 51 54 55 51 49 50 52 51 50 50 44 42 40 39 39 39 39 40 40 41 42 42 43 44 46 47 48
56 55 54 56 54 54 54 52 52 52 49 44 49 50 48 49 47 48 49 50 49 46 42 40 39 38 38 38 38 38 39 39 40 41 41 43 44 45
55 55 54 54 52 53 53 52 52 52 51 46 45 49 47 47 46 48 48 48 49 45 42 40 40 39 38 38 38 38 38 38 38 39 39 40 41 42
55 54 54 53 52 52 52 51 51 49 47 43 41 41 44 47 47 44 44 47 46 48 45 42 40 41 39 39 39 39 38 38 38 38 38 38 38 39
54 54 53 51 46 45 50 49 49 45 41 39 38 40 43 44 42 46 43 43 44 45 45 46 46 46 46 43 43 40 39 39 38 38 38 38 38 38
52 53 54 48 45 39 38 38 40 42 40 40 39 38 42 43 43 42 41 38 35 46 42 41 45 43 45 46 41 39 38 38 38 38 38 38 38 38
52 52 52 53 47 49 43 37 36 36 35 41 39 40 38 41 41 40 40 39 39 43 41 37 42 40 44 46 41 39 39 38 38 38 38 38 37 37
51 51 50 50 50 48 48 46 45 44 42 42 43 44 43 43 42 41 39 38 38 40 43 33 40 39 43 44 41 40 39 38 38 38 38 38 38 37
50 50 50 49 45 41 43 40 41 42 42 39 37 37 36 35 35 38 33 32 30 36 42 37 37 37 40 41 44 40 38 39 38 38 38 38 37 37
46 46 42 43 39 36 39 39 35 39 41 41 41 38 36 38 34 36 35 30 32 32 40 34 36 36 32 39 40 41 42 40 39 39 39 39 38 41
40 41 41 38 36 35 34 37 37 41 38 39 39 39 40 40 41 38 38 35 32 32 40 37 34 35 33 33 38 40 40 39 40 39 39 39 38 38
38 40 42 37 37 35 34 34 34 34 37 36 35 35 36 37 38 39 39 39 38 36 40 37 31 32 30 30 31 38 38 39 38 38 40 39 38 37
39 38 35 35 35 34 32 32 32 33 33 33 33 35 37 39 39 39 38 38 37 37 37 36 34 34 33 30 31 34 33 36 39 38 39 39 39 40
36 38 37 35 34 34 34 34 34 35 35 34 34 38 38 35 34 36 34 34 32 32 37 38 36 34 31 33 34 33 34 31 37 38 37 37 39 40
32 36 37 38 36 36 35 34 35 34 33 35 35 35 35 34 33 35 34 33 30 32 34 37 38 37 35 33 30 33 33 34 37 36 35 35 39 39
34 33 33 34 34 34 33 33 34 33 34 35 34 33 33 32 32 33 34 30 29 32 33 35 35 33 34 35 35 32 32 32 35 35 35 33 35 39
30 29 29 29 31 31 34 34 33 35 34 34 34 32 32 32 31 31 31 31 29 31 33 35 33 31 27 25 34 33 32 33 32 31 33 32 31 36
28 26 26 27 27 29 30 30 33 35 34 33 32 32 32 31 30 30 31 30 30 31 33 34 34 33 29 26 26 31 32 30 30 29 30 33 36 35
25 25 25 25 25 26 26 26 27 29 32 32 32 32 31 31 31 31 31 30 29 31 30 31 35 29 32 31 26 29 32 32 30 30 30 31 32 35
22 22 23 23 23 23 24 24 24 26 27 31 31 31 31 31 31 31 31 30 29 30 32 34 35 34 33 30 28 29 31 33 32 30 29 28 29 27
20 20 20 20 21 21 21 21 22 23 24 25 26 31 31 30 31 32 31 31 30 30 31 30 33 34 32 32 29 29 29 30 34 33 32 30 29 29

GFSNE_sfc_temp_075.txt.gz
Temp
59 59 58 59 59 59 58 56 51 44 47 54 54 60 61 59 56 56 54 50 45 45 45 44 43 43 43 43 44 44 45 46 47 47 48 49 50 51
60 58 58 59 59 59 58 57 55 51 46 53 55 57 59 59 57 54 54 50 48 46 44 44 43 42 42 41 42 42 43 44 45 45 46 47 48 49
59 58 57 58 57 57 57 57 54 54 49 52 56 57 55 54 55 54 54 52 52 46 44 43 42 41 41 40 40 40 40 41 42 43 43 45 46 47
58 57 57 59 56 56 56 54 54 54 51 48 52 53 53 53 52 49 50 52 51 49 45 42 42 41 40 39 39 39 39 39 39 40 41 42 43 45
58 57 56 56 55 56 55 54 55 55 53 51 49 53 52 52 50 49 48 49 51 49 45 43 43 42 41 41 40 39 39 39 38 39 39 39 40 41
57 57 56 55 54 54 54 54 54 52 51 50 49 48 47 48 47 44 43 47 47 51 48 44 44 44 43 42 41 40 39 40 39 39 38 38 38 39
56 57 56 54 48 48 52 51 50 48 48 47 45 43 43 42 41 44 42 43 45 47 45 47 47 47 47 45 44 43 41 41 40 39 39 38 38 38
53 54 56 51 50 42 42 41 43 45 43 42 41 40 41 42 43 41 40 39 37 47 43 42 45 43 45 46 43 40 40 40 39 39 39 38 38 38
52 52 52 55 49 54 46 39 39 38 36 42 39 40 40 43 43 41 40 39 39 43 42 38 42 40 44 46 43 41 40 40 39 38 38 38 38 37
51 51 51 51 52 49 49 48 48 47 43 43 42 43 44 45 43 42 40 39 40 41 41 33 40 39 43 44 42 42 41 40 39 38 39 38 38 37
49 49 49 48 45 41 43 43 43 43 45 41 40 40 38 36 36 38 35 33 32 34 40 37 38 37 39 40 42 39 39 39 38 39 39 39 38 38
44 45 41 42 37 37 39 38 35 38 39 41 43 40 38 40 34 37 37 32 32 32 38 35 35 37 32 39 40 41 41 40 39 39 39 39 39 39
39 40 42 38 37 37 36 38 35 38 38 36 37 41 39 40 41 39 39 36 32 32 39 38 35 35 33 33 37 39 39 39 39 39 40 40 38 39
36 39 40 38 36 36 36 36 35 33 34 33 34 35 37 38 40 41 39 39 39 37 39 38 33 32 30 29 30 36 37 38 37 37 38 39 39 39
36 36 35 35 35 36 34 34 33 33 33 32 33 36 38 39 40 38 38 39 39 38 39 38 36 34 32 30 30 32 32 36 38 36 36 38 38 39
34 36 34 33 34 34 34 37 35 34 33 34 35 38 39 37 36 38 35 33 32 34 38 38 37 35 32 32 32 31 34 31 36 36 37 37 38 39
31 33 35 35 35 36 36 37 36 35 34 36 36 37 37 37 36 36 33 33 30 31 33 37 38 37 36 34 30 33 32 32 35 34 34 34 37 38
30 32 30 29 29 30 33 32 34 34 34 36 36 35 35 35 35 35 34 32 30 31 32 35 36 34 34 36 36 32 32 32 34 34 35 31 33 38
30 30 28 26 26 28 29 30 30 32 32 34 34 33 34 34 33 32 32 31 30 31 32 35 34 32 27 25 34 34 31 33 33 31 33 32 31 34
29 28 27 26 26 26 26 26 27 28 30 29 33 33 32 32 32 31 32 30 30 31 32 34 34 33 30 28 27 32 33 30 30 30 30 32 34 35
27 26 26 25 24 24 24 24 25 25 26 27 28 31 32 32 31 31 31 31 31 31 30 31 35 30 34 32 26 29 33 32 32 30 31 29 30 33
23 23 23 23 22 22 22 22 23 23 23 24 25 27 29 32 31 31 31 30 30 31 31 34 36 35 33 30 29 29 32 31 32 31 31 28 29 25
21 21 21 21 22 22 21 20 20 20 21 22 23 22 23 25 30 32 31 31 31 30 31 31 33 34 32 32 31 30 30 32 33 33 31 30 30 30

GFSNE_sfc_temp_078.txt.gz
Temp
51 52 51 51 49 49 48 46 41 34 37 41 42 48 48 48 46 43 44 49 47 45 45 45 46 46 46 45 44 44 45 45 46 47 48 49 49 50
53 52 50 50 49 48 47 47 45 41 38 42 44 45 47 53 50 47 47 50 45 44 44 45 46 45 45 44 44 43 43 43 44 44 45 46 47 48
53 51 50 52 48 47 47 46 44 43 40 43 44 45 44 44 47 45 47 44 45 46 45 45 44 44 43 43 42 42 41 41 42 42 43 44 45 46
52 51 51 55 48 47 45 44 44 44 42 40 43 42 42 43 43 42 46 49 45 48 45 44 43 42 42 41 41 41 41 40 40 41 41 42 43 44
51 49 49 49 46 45 45 44 44 49 42 38 41 41 40 41 39 39 39 39 46 48 45 44 43 43 43 42 41 41 41 40 40 40 39 39 40 41
50 49 49 48 46 45 46 43 45 40 38 37 38 37 36 38 36 34 35 36 38 47 46 44 43 44 44 42 41 41 41 41 40 40 39 39 38 39
48 50 49 48 46 44 46 42 41 41 40 38 37 37 35 35 33 33 35 33 34 38 36 36 36 36 38 42 43 43 42 42 41 41 40 39 38 38
44 46 47 46 47 43 41 40 41 40 39 37 38 35 34 32 32 32 33 31 27 35 36 31 34 32 35 36 42 41 41 40 40 40 39 39 38 38
42 43 45 51 44 45 43 40 38 38 36 39 36 35 34 33 32 31 33 31 29 32 31 28 31 29 34 42 42 41 41 41 40 40 39 38 38 37
42 42 42 41 41 39 37 36 37 39 40 39 37 36 37 37 34 34 32 31 30 31 33 23 29 29 32 33 41 42 41 40 40 39 39 38 38 38
42 41 40 37 39 40 34 33 34 35 41 41 40 38 38 39 36 30 26 25 24 28 30 26 29 29 29 29 32 41 40 39 39 39 39 38 38 38
35 38 37 36 36 36 33 32 31 33 33 35 35 36 36 35 35 33 30 27 27 24 30 26 28 28 24 29 29 30 30 37 39 39 40 39 39 36
30 31 32 36 36 36 35 33 32 34 33 33 33 35 35 35 32 32 33 31 28 27 31 29 25 26 23 24 26 29 28 29 30 32 38 38 39 38
29 30 31 35 35 35 34 35 35 33 33 32 31 31 32 33 34 34 34 33 32 32 32 32 26 25 25 23 24 26 26 27 27 29 29 34 37 38
29 31 33 33 33 32 34 35 34 31 32 30 31 31 32 35 34 34 34 33 33 32 36 33 30 30 26 24 24 25 24 26 29 27 27 30 31 30
28 27 28 29 30 32 31 33 31 33 32 31 31 31 31 32 33 33 30 31 30 29 32 33 32 30 27 28 27 25 27 22 26 26 28 26 31 29
24 26 26 26 27 27 28 29 30 31 29 31 31 30 31 29 30 30 29 31 29 26 28 30 32 32 32 30 26 27 27 27 27 28 30 29 27 29
24 23 22 18 19 23 24 25 26 26 26 27 28 31 30 28 27 29 28 29 27 27 28 29 29 28 29 30 33 28 27 27 28 27 27 22 26 27
22 21 17 17 18 22 23 23 23 24 26 26 25 26 29 29 27 29 29 29 28 27 27 28 27 26 23 15 26 34 22 25 24 21 24 24 20 27
23 21 17 18 20 21 21 20 21 22 22 22 22 24 25 26 29 29 29 27 28 28 27 29 27 28 25 20 16 19 33 25 23 20 25 24 26 32
22 21 18 19 18 19 19 19 18 19 18 19 20 22 22 22 23 28 29 29 27 28 27 27 27 29 27 22 12 14 20 33 30 26 25 19 22 23
17 18 18 18 18 18 18 17 17 17 17 17 17 19 19 19 19 22 26 28 27 27 27 27 29 29 26 24 19 15 20 23 30 31 31 27 18 15
12 17 18 14 16 16 16 15 15 15 15 16 16 16 16 15 17 19 21 28 27 27 26 26 28 28 28 28 23 20 20 18 26 27 26 30 31 30

GFSNE_sfc_temp_081.txt.gz
Temp
49 49 49 49 49 49 48 45 41 33 34 38 40 45 45 45 45 43 41 46 46 46 46 47 48 48 48 47 47 47 46 46 46 46 47 47 48 49
49 48 49 49 49 48 47 46 42 39 38 39 40 42 44 50 47 43 42 47 46 46 45 45 46 47 47 47 46 45 45 45 45 44 45 45 46 47
49 48 48 49 47 45 44 44 42 40 37 39 40 42 40 41 44 43 42 42 42 44 43 44 44 44 45 45 45 44 44 44 43 43 43 44 45 46
49 49 48 51 45 44 42 42 41 41 40 40 39 38 40 43 42 40 45 48 43 45 44 45 45 44 44 43 42 42 42 42 42 42 42 42 42 43
49 47 47 46 43 42 42 40 40 44 38 34 34 36 36 37 37 38 38 38 43 46 44 44 44 44 43 42 42 42 42 41 41 41 40 40 41 41
47 46 46 45 43 42 42 40 41 37 36 33 33 33 33 35 34 32 31 32 34 43 44 42 42 43 43 43 42 42 42 42 41 40 40 39 39 40
44 46 45 45 44 42 42 38 36 34 32 32 34 30 29 30 31 31 31 30 30 32 33 37 34 34 35 40 42 42 42 42 42 41 40 40 39 39
41 41 42 43 43 41 40 38 36 32 31 29 33 32 33 30 31 31 29 29 25 31 30 29 32 30 33 33 40 41 42 41 41 41 40 40 39 38
38 38 40 45 39 38 37 36 35 37 33 31 31 32 33 32 32 33 30 30 28 30 31 27 28 28 31 38 40 41 41 41 40 40 40 39 38 37
38 37 36 35 36 36 34 31 31 32 34 36 32 33 34 36 36 35 34 30 29 29 30 21 26 27 28 30 38 40 41 40 40 40 39 39 38 37
37 36 36 33 36 38 33 30 31 31 38 38 38 38 38 38 37 34 30 29 21 25 28 25 27 25 27 27 31 38 39 39 39 39 39 39 39 38
32 33 34 34 34 34 31 29 28 30 31 32 33 33 34 34 35 35 33 28 25 21 28 26 26 25 21 27 28 29 28 34 37 37 38 39 39 35
29 29 29 33 34 34 34 30 29 32 32 33 33 33 33 34 35 35 32 31 29 28 30 29 24 24 22 23 25 29 26 27 27 28 34 36 37 37
28 29 29 32 33 33 32 33 33 31 33 32 32 31 31 32 33 34 33 31 34 33 32 31 22 24 22 21 22 26 24 24 22 25 27 32 34 36
28 29 29 30 30 29 32 32 29 27 27 27 30 31 33 33 31 32 34 33 31 32 33 30 27 28 26 25 24 24 19 22 24 24 22 26 28 29
26 26 26 27 27 26 26 28 27 26 25 25 24 27 31 32 30 33 32 32 31 29 31 31 31 31 28 27 26 25 26 18 24 24 28 25 27 28
23 23 24 25 24 24 24 25 25 24 23 23 24 24 26 29 30 31 32 30 29 29 28 28 31 32 30 29 25 26 25 24 26 24 26 27 27 27
23 20 16 14 16 20 19 20 21 20 22 22 22 22 22 25 24 30 30 28 29 29 27 26 29 27 25 29 32 27 22 24 27 26 25 20 23 25
19 18 12 11 11 18 18 18 17 18 21 20 18 19 21 22 23 22 29 29 29 29 25 26 28 26 22 17 26 34 25 24 23 21 22 19 22 24
22 18 14 14 15 18 17 16 17 15 16 16 16 16 17 18 18 20 20 27 28 27 27 27 27 27 22 20 18 19 32 21 19 18 19 22 24 30
19 18 13 12 12 14 7 8 5 6 9 6 12 15 15 15 15 16 17 20 22 28 26 25 29 29 27 22 16 15 16 30 29 22 22 19 20 22
15 14 14 12 12 9 4 4 8 4 11 9 11 13 12 13 13 14 15 16 18 25 27 27 29 29 25 24 20 13 15 18 28 32 30 28 18 14
9 9 8 6 7 4 8 1 3 0 5 9 12 10 10 9 12 13 13 14 18 20 25 25 28 28 27 28 23 18 18 17 21 25 24 30 31 30

GFSNE_sfc_temp_084.txt.gz
Temp
47 47 48 49 48 49 48 44 39 34 34 38 39 45 45 44 45 43 42 46 47 46 47 48 50 50 50 50 49 49 49 49 48 48 47 47 48 48
48 47 48 47 48 48 46 43 41 38 34 39 40 41 43 48 46 45 42 46 46 45 45 46 47 48 48 48 48 48 48 47 47 47 46 46 46 47
49 48 48 48 48 45 43 42 41 39 36 39 38 40 38 40 42 42 41 39 39 45 44 45 45 45 45 46 46 46 47 46 46 46 45 45 45 45
48 47 48 50 46 44 41 40 39 38 36 35 36 36 37 39 38 39 44 45 41 45 44 45 45 44 44 44 44 44 44 44 44 44 44 44 44 45
48 48 48 47 42 40 40 39 38 42 37 33 34 34 34 35 35 36 36 36 40 45 44 43 43 44 44 45 43 43 42 42 41 41 42 42 42 43
48 47 45 43 41 40 39 37 38 34 33 31 30 31 31 33 32 31 32 31 33 41 43 41 41 43 44 43 43 42 42 42 41 41 40 39 39 40
44 43 42 43 43 40 39 34 32 30 29 28 29 28 28 28 29 31 30 31 30 31 33 33 33 34 37 41 42 42 42 42 42 42 41 40 39 39
40 40 42 41 39 38 38 38 35 31 29 27 27 28 29 29 29 30 34 31 31 30 33 31 31 31 33 32 39 40 41 41 42 41 41 40 40 39
37 38 40 41 37 35 35 35 34 36 32 30 27 28 29 29 29 31 33 33 32 32 30 27 27 28 32 36 39 40 40 40 41 40 40 39 39 38
37 35 34 32 33 34 32 31 32 32 33 34 32 32 31 31 30 32 33 33 34 30 31 28 26 27 28 29 37 39 40 40 40 39 39 39 38 38
35 34 33 31 34 36 31 29 29 31 36 37 37 37 37 37 36 33 31 30 29 28 30 31 26 25 26 27 29 38 39 39 38 38 38 38 38 38
32 33 33 32 33 33 29 28 27 29 29 30 32 32 35 35 34 33 32 28 29 28 29 28 27 25 20 26 27 28 28 34 36 37 37 38 38 31
30 30 30 31 32 33 33 29 29 32 31 30 32 33 34 34 34 34 34 32 30 29 30 31 26 25 23 23 24 27 27 27 26 27 34 35 36 35
28 29 29 31 31 31 31 32 32 29 26 26 25 26 27 29 32 34 34 34 34 33 34 31 28 27 24 20 21 25 25 24 20 25 25 30 33 34
28 28 29 30 30 29 30 30 27 24 22 22 22 23 25 27 30 32 33 34 34 34 33 31 30 29 27 22 21 22 23 24 23 22 22 24 26 25
27 27 26 27 26 27 27 27 25 23 22 22 21 23 24 25 25 28 28 31 30 31 31 32 31 29 27 26 28 26 27 20 22 22 25 23 26 29
24 24 24 24 24 24 23 24 23 23 20 20 20 18 20 21 22 24 25 26 29 28 29 29 29 30 30 30 26 26 26 24 24 24 23 23 27 28
24 21 18 16 18 20 19 19 20 19 19 19 16 17 16 16 19 20 22 22 24 29 30 30 26 27 27 28 31 26 18 23 24 24 25 20 23 25
21 19 15 13 14 18 18 17 14 15 18 15 13 13 15 16 15 15 18 19 19 23 29 29 28 26 22 17 27 33 25 23 23 19 23 21 17 24
22 19 16 15 16 16 15 14 14 11 9 12 9 8 12 13 11 12 14 14 16 19 22 28 27 27 24 18 19 21 32 25 21 17 17 20 24 29
18 17 15 14 12 11 3 -0 -3 -2 -2 -5 2 4 6 10 9 10 11 12 14 16 17 24 29 30 27 21 16 15 17 30 28 21 20 18 18 20
12 14 14 12 6 5 -2 -4 -4 -4 -1 0 -2 2 -2 4 6 7 9 9 11 14 17 20 29 27 23 23 20 13 14 16 27 30 30 28 19 15
8 11 8 4 5 1 7 -2 -2 -6 -1 2 3 5 -6 3 7 8 7 9 11 13 14 16 26 26 25 26 22 19 16 14 19 22 20 30 30 30

GFSNE_sfc_temp_087.txt.gz
Temp
48 47 48 47 47 48 47 45 43 38 37 41 39 43 43 42 44 42 41 46 47 47 47 48 50 51 52 52 51 51 50 50 51 50 50 49 48 48
48 47 48 48 48 47 47 46 44 42 34 38 39 40 41 45 45 43 41 46 46 45 45 46 47 48 49 49 49 48 48 49 49 49 49 48 48 48
48 48 48 49 48 47 46 45 43 39 34 36 37 38 37 39 41 40 41 40 39 44 44 45 45 45 46 46 46 46 47 48 48 48 48 48 48 48
48 48 48 49 47 46 44 43 42 37 36 33 35 35 35 37 37 37 41 43 39 44 43 44 44 44 44 44 44 44 44 45 46 46 46 47 46 46
48 48 47 47 45 43 43 41 37 40 35 32 32 32 33 34 34 35 35 35 39 44 43 43 43 44 44 44 44 43 43 44 43 43 43 43 44 44
48 47 47 45 44 42 41 37 37 34 32 30 29 29 30 32 30 29 30 31 32 40 42 42 41 43 44 43 43 43 42 42 42 41 41 40 40 41
45 45 44 43 42 41 38 35 33 30 29 28 27 27 27 28 28 29 28 31 30 32 33 33 35 35 35 40 41 42 41 41 42 42 41 40 40 40
40 40 41 41 39 38 38 36 34 31 29 26 27 27 27 27 28 27 27 27 26 30 28 30 31 32 34 31 38 40 41 41 41 41 41 41 40 39
38 38 40 40 37 37 36 36 34 36 32 30 27 26 26 28 28 27 26 27 29 33 31 31 29 30 33 36 38 39 40 40 40 40 40 40 39 38
37 37 35 34 35 34 32 31 32 32 32 32 29 28 28 30 30 31 31 32 33 34 34 28 28 29 30 32 37 39 40 39 39 39 39 39 38 38
35 35 34 32 34 35 31 29 29 31 35 36 36 36 36 36 36 33 30 29 28 30 31 30 30 27 27 28 30 37 38 39 39 39 38 38 38 37
32 32 33 31 32 33 30 28 27 30 29 30 31 33 34 33 34 33 32 27 28 27 31 27 28 27 26 26 27 29 29 37 37 37 37 37 37 31
30 29 30 31 32 32 32 29 29 29 28 27 28 28 28 29 30 32 32 30 28 28 33 31 27 26 27 23 24 27 28 26 27 28 34 35 36 34
29 28 28 30 31 31 30 31 30 27 25 24 24 24 24 25 26 27 29 32 33 31 33 32 29 27 26 25 24 26 25 24 20 23 25 30 33 34
28 28 29 29 29 28 30 29 27 24 23 21 21 21 23 24 26 26 28 28 30 32 33 33 31 29 29 27 24 24 22 23 24 22 21 24 25 24
27 27 27 27 27 27 27 26 25 24 22 20 19 21 21 21 20 23 21 22 23 24 32 34 32 31 28 28 27 25 24 23 21 22 22 24 24 25
25 25 25 24 23 23 23 23 23 22 20 19 18 17 17 18 17 20 19 19 19 20 21 31 32 31 31 29 25 26 25 25 24 25 22 23 25 25
24 21 18 17 18 20 19 19 20 19 18 18 14 14 13 13 14 15 16 15 14 16 19 21 29 27 28 29 32 27 21 22 23 25 25 23 23 25
21 20 16 15 16 18 18 17 15 15 16 13 10 10 11 12 12 11 12 12 12 14 17 21 22 27 23 21 23 33 26 23 22 21 22 21 17 24
21 18 16 16 16 16 15 14 12 8 6 9 5 3 3 9 7 8 9 7 9 11 14 19 19 27 24 21 17 18 32 24 21 19 17 19 23 28
17 16 15 14 13 12 4 -0 -6 -6 -5 -7 -2 -2 -2 5 5 7 7 7 7 10 10 14 19 21 22 24 16 14 16 30 29 23 21 17 23 19
12 14 14 12 4 2 -5 -6 -8 -8 -3 -4 -2 -7 -8 -4 2 3 5 5 6 7 10 15 19 20 24 22 17 9 16 14 26 31 30 28 19 14
7 9 7 2 4 5 6 -2 -4 -8 -3 3 -0 1 -6 -4 2 5 5 5 5 6 10 12 15 18 25 25 20 18 18 16 20 22 21 30 30 30

GFSNE_sfc_temp_090.txt.gz
Temp
50 50 50 48 48 49 48 46 45 39 39 44 44 46 46 44 45 44 44 46 47 47 47 48 50 51 52 52 53 53 53 53 53 52 52 52 51 51
51 50 50 49 48 48 48 47 46 44 40 44 44 45 45 46 45 45 43 46 46 46 45 46 47 48 49 50 50 51 51 52 51 51 51 50 50 50
51 50 50 50 48 48 47 46 45 43 41 42 42 42 41 41 43 43 43 42 43 44 44 45 45 45 46 46 47 48 49 50 50 50 50 50 49 50
50 50 50 49 48 48 46 44 44 43 40 39 40 38 38 40 40 39 43 44 43 44 44 44 44 44 44 44 44 45 45 46 46 46 47 48 48 49
51 50 49 47 46 44 44 44 42 43 39 37 36 35 36 37 37 38 38 39 41 44 43 43 43 44 44 43 43 43 43 43 43 43 43 44 45 46
50 49 49 48 47 44 43 42 40 38 36 33 32 34 34 36 34 34 34 35 36 41 42 41 41 42 43 43 43 43 43 43 43 42 41 41 41 42
47 46 45 44 43 42 41 38 37 35 34 32 31 31 31 32 33 33 32 32 33 35 36 36 37 37 38 39 41 42 43 42 42 42 41 40 40 40
42 40 40 39 38 37 37 37 37 35 33 32 31 31 32 32 32 31 30 28 28 34 32 32 36 36 37 38 38 39 40 42 42 41 41 41 40 40
38 37 38 38 37 36 36 36 35 36 33 33 30 30 30 31 31 30 29 29 30 34 33 32 35 34 37 38 38 39 39 40 41 40 40 40 39 39
37 36 34 34 35 35 34 34 33 33 34 33 32 31 31 32 31 32 31 32 34 35 35 28 34 33 35 35 37 39 40 40 40 39 39 39 38 38
34 34 34 33 34 34 32 30 30 32 35 35 35 35 36 36 35 33 30 29 28 31 34 31 32 32 33 33 35 37 39 39 39 39 39 39 38 37
30 30 30 30 32 32 30 30 28 30 30 30 31 31 32 32 32 32 31 28 29 28 33 29 31 30 28 31 31 33 36 37 38 39 39 38 38 38
28 28 30 30 30 31 31 30 29 29 28 28 28 28 29 28 29 29 29 27 25 27 34 32 30 31 29 29 31 32 32 33 35 36 37 37 37 37
27 28 28 29 30 30 29 30 29 27 26 25 24 24 24 25 25 26 27 28 29 28 30 30 30 30 29 28 27 31 30 30 30 31 32 33 34 35
27 27 27 28 28 28 29 28 26 25 23 21 21 21 23 23 25 24 25 26 26 26 30 29 29 31 31 28 28 27 28 29 30 30 30 30 31 32
26 26 26 27 27 26 26 25 24 23 21 20 19 21 21 21 19 21 19 20 18 20 27 28 27 28 30 30 31 28 29 27 28 29 29 29 30 30
25 25 25 24 23 23 23 22 22 21 19 19 19 17 17 17 16 18 17 16 14 16 17 22 26 26 27 31 28 29 28 27 29 30 27 28 30 31
24 22 20 19 19 20 19 19 19 18 18 18 16 15 13 12 13 15 14 12 11 13 14 17 19 20 26 31 32 28 28 28 28 29 28 26 28 31
21 21 17 16 17 19 18 17 16 16 16 14 12 10 10 10 11 10 11 10 9 11 12 15 16 18 17 19 29 33 29 27 27 26 28 26 26 29
19 16 16 16 16 16 15 14 14 10 8 9 8 6 3 8 7 8 8 6 7 9 10 14 15 17 15 14 17 26 33 28 26 26 25 26 28 29
15 15 15 14 13 12 8 3 1 2 0 -3 1 1 2 5 5 6 6 5 5 8 7 9 14 18 19 21 19 23 25 31 29 27 25 24 25 25
8 10 11 9 6 7 4 1 2 -0 1 1 1 2 1 2 3 3 4 4 6 7 7 11 15 17 17 17 20 21 24 24 28 31 30 29 25 22
2 5 7 7 7 7 7 2 0 -5 -2 1 4 4 0 0 3 4 5 6 5 5 6 8 12 15 15 17 20 23 20 22 26 26 27 30 30 31

GFSNE_sfc_temp_093.txt.gz
Temp
58 56 57 60 60 60 58 52 52 46 43 47 52 57 51 50 50 51 54 53 48 48 48 49 51 52 52 53 53 54 55 56 56 56 55 55 55 54
57 54 55 58 57 57 55 50 54 53 48 52 51 57 51 50 51 51 56 51 47 46 46 46 47 49 49 50 51 51 52 53 54 54 54 54 53 53
53 53 52 54 51 50 49 48 50 52 51 52 58 57 46 47 50 52 55 55 56 45 44 45 45 45 46 46 47 48 49 50 51 52 52 53 53 53
52 51 51 52 50 50 51 49 53 51 48 47 51 43 43 47 52 52 53 55 55 48 44 44 44 44 44 44 44 44 45 46 47 48 49 50 50 50
54 52 52 52 50 50 51 52 51 45 45 44 42 41 42 47 48 50 49 50 50 47 43 43 43 44 44 44 43 43 43 43 43 44 44 45 45 47
56 54 53 52 50 50 49 47 45 41 39 39 37 39 43 47 47 47 45 48 48 49 46 43 43 43 43 43 42 43 43 43 43 42 42 41 41 43
52 52 51 50 47 48 46 42 40 37 35 35 35 37 41 39 41 46 44 46 46 45 44 45 44 44 44 43 43 42 41 42 42 42 42 41 40 41
48 42 42 41 40 38 38 37 39 36 34 35 36 35 35 37 41 41 40 38 37 44 41 41 44 41 42 44 43 40 40 40 40 41 42 41 41 40
39 39 38 37 36 35 35 35 34 34 33 36 35 34 35 38 39 38 38 37 38 43 40 37 41 39 44 45 41 40 39 39 39 40 41 40 40 39
37 36 35 34 34 33 33 32 32 32 34 34 35 37 38 38 38 38 38 37 39 40 40 31 40 40 43 44 41 40 39 39 39 40 40 39 39 38
33 33 33 32 32 33 31 30 30 31 34 34 34 34 34 34 35 35 33 33 32 37 41 37 39 39 41 41 43 40 39 38 38 39 39 39 39 38
30 30 30 30 30 31 31 31 30 31 31 31 32 32 31 33 31 33 32 29 31 32 40 35 37 38 33 42 43 42 43 39 38 39 39 39 39 44
29 28 28 29 29 30 31 31 31 31 30 31 30 31 31 30 31 31 30 28 27 29 37 31 33 35 33 35 39 40 42 42 43 42 38 39 38 40
28 28 29 29 29 30 31 29 28 27 28 28 28 27 26 26 27 28 28 28 29 29 33 30 26 30 30 31 33 40 40 41 40 40 41 40 37 37
29 28 27 27 28 29 28 27 26 28 27 25 24 24 25 25 25 25 27 27 28 29 29 29 29 31 30 29 32 35 34 37 39 38 39 39 39 40
28 29 27 27 28 28 28 27 27 26 24 24 23 24 24 22 21 23 22 23 22 24 29 30 29 28 27 30 31 32 36 31 37 36 37 38 39 40
29 29 28 28 27 27 27 26 26 25 22 22 21 20 20 21 21 22 22 22 20 21 23 27 29 29 29 28 26 31 34 35 35 35 33 35 38 39
28 26 25 25 24 25 24 24 23 22 22 21 21 20 19 18 19 20 21 19 18 19 20 23 24 23 26 31 33 31 33 33 34 32 32 33 33 38
24 22 21 21 21 22 21 21 19 20 19 19 18 17 17 17 16 16 17 17 16 17 19 21 20 20 18 19 30 33 32 34 32 31 33 32 33 37
21 19 18 19 19 18 18 17 16 17 16 16 15 15 14 14 13 14 14 13 14 15 16 20 20 20 17 16 18 24 28 25 31 31 31 35 36 30
17 16 16 15 15 15 14 13 13 12 12 11 12 12 12 12 12 12 12 11 11 13 13 15 19 18 20 21 18 22 28 31 32 34 34 32 32 33
13 13 13 13 12 12 12 12 11 11 10 11 10 11 11 11 10 10 11 11 12 12 13 17 19 20 19 18 18 20 21 30 31 31 33 34 32 28
9 10 10 10 10 10 10 9 8 8 8 8 9 10 9 9 11 11 11 11 11 11 12 13 16 18 18 18 17 17 18 27 31 30 33 30 31 31

GFSNE_sfc_temp_096.txt.gz
Temp
68 66 63 61 59 63 56 54 52 49 52 58 56 60 62 61 60 60 62 53 49 48 49 50 52 53 54 54 54 55 56 57 57 57 57 57 57 57
69 67 66 64 64 63 58 56 56 52 49 57 57 61 65 65 62 61 62 54 49 47 47 47 48 50 51 51 51 52 53 54 54 55 56 56 56 56
68 65 63 62 59 56 55 54 51 50 49 54 57 65 63 61 63 59 62 58 55 46 45 45 46 46 46 47 47 48 49 50 51 52 53 54 55 55
60 58 56 56 55 54 52 51 51 51 50 48 53 49 59 51 50 54 53 56 57 52 45 45 45 44 44 44 44 44 45 45 46 47 49 50 52 53
61 58 56 55 53 53 52 51 52 52 50 49 50 50 47 44 43 47 47 51 57 50 44 43 43 44 44 44 43 43 43 43 43 43 44 45 47 48
62 56 56 55 53 53 52 51 50 49 49 45 42 38 39 40 41 41 41 45 49 53 50 45 45 45 44 43 42 43 43 43 43 42 42 41 41 43
56 54 55 53 47 48 51 50 48 43 39 39 36 35 36 35 36 39 38 42 43 47 48 50 50 50 50 44 44 44 43 42 42 42 42 41 41 41
51 43 42 41 38 37 37 35 38 38 35 35 34 34 33 33 34 35 36 36 35 49 45 43 49 47 47 49 44 42 42 41 41 41 40 40 41 41
39 39 37 37 37 36 34 34 34 34 32 36 34 33 33 34 36 36 36 36 36 42 43 41 47 44 47 48 43 42 41 40 40 40 39 39 40 40
35 35 34 33 34 34 34 32 32 32 33 34 34 34 35 38 38 37 36 36 39 42 43 35 44 43 46 47 44 42 41 40 40 39 39 39 39 39
33 33 32 31 32 34 32 31 31 32 33 33 33 32 32 32 32 35 34 34 34 38 42 38 39 40 43 44 47 43 41 40 40 39 38 39 39 39
31 31 31 31 31 31 31 31 30 32 33 33 33 32 31 35 31 33 33 29 30 30 38 33 37 38 34 43 44 46 46 40 39 38 38 39 40 44
30 29 30 29 30 30 30 32 31 32 31 33 34 33 32 33 33 33 32 29 28 28 36 32 32 33 32 34 40 43 45 45 45 45 38 39 39 41
30 31 31 29 30 31 32 29 28 29 32 31 30 29 30 30 30 30 29 29 30 28 31 30 27 28 28 29 32 39 41 44 43 42 43 42 38 38
33 30 29 29 30 30 29 27 27 32 30 28 28 28 29 29 29 28 29 29 28 29 29 29 27 29 29 29 31 34 34 39 43 41 41 41 39 41
32 33 31 30 29 30 30 31 31 30 28 27 28 29 29 28 27 28 26 27 27 28 33 33 32 31 28 31 32 32 35 34 39 39 39 40 41 41
32 33 32 31 30 31 31 30 30 29 27 26 25 25 25 25 25 26 25 25 23 25 27 31 33 32 31 30 27 31 32 34 38 38 36 36 37 40
30 27 26 26 26 26 25 24 26 24 23 23 22 22 21 20 21 22 23 21 20 22 24 27 28 26 27 30 32 30 32 33 36 38 36 34 34 38
25 24 23 22 22 23 23 22 20 21 21 21 19 19 18 18 17 18 18 19 18 20 22 23 23 22 20 18 30 34 29 30 30 29 34 34 32 36
24 22 20 20 20 20 20 18 18 18 17 17 16 16 16 15 15 15 16 15 15 17 18 21 22 22 19 17 18 23 27 25 26 25 32 34 36 30
20 20 20 19 18 18 17 16 15 15 14 14 14 14 14 14 14 14 14 13 14 16 15 18 21 22 23 23 18 21 28 31 29 27 30 31 33 33
17 17 17 17 16 16 15 14 14 14 14 13 13 13 13 13 12 13 13 13 14 15 15 19 21 22 21 19 18 20 24 28 28 29 30 34 34 30
15 15 15 15 15 14 14 13 12 12 12 12 12 12 12 11 13 13 13 14 14 14 14 15 18 20 20 20 19 20 21 21 24 29 32 31 32 32

GFSNE_sfc_temp_099.txt.gz
Temp
67 67 67 68 68 68 67 61 56 51 53 59 59 60 59 56 54 57 58 57 50 50 50 51 53 54 55 55 56 56 57 58 58 58 58 58 59 59
67 67 68 69 69 68 65 62 58 54 51 57 55 57 55 55 53 53 55 54 50 48 48 49 50 52 52 52 53 53 54 54 55 56 56 57 57 57
70 69 69 70 67 65 60 58 57 55 51 56 57 56 53 51 54 54 55 58 58 48 47 48 48 48 48 48 49 49 50 51 52 53 54 55 55 56
69 69 68 65 59 59 61 57 55 55 51 50 54 53 53 53 55 54 56 60 60 51 47 46 46 46 45 45 45 45 45 46 47 48 49 51 52 53
70 68 65 59 58 59 58 54 54 53 52 49 50 52 52 46 49 46 48 48 52 48 45 44 44 44 44 44 44 44 44 43 43 44 44 45 46 48
66 63 62 60 57 55 55 53 52 51 50 48 48 42 39 39 40 39 39 42 42 47 45 43 43 43 44 44 43 43 43 43 43 42 42 41 41 43
61 53 42 41 39 39 45 48 48 48 46 43 36 36 36 35 36 38 36 36 40 42 41 42 44 43 43 44 44 44 43 43 42 42 42 41 40 41
43 39 39 38 36 36 35 35 34 37 37 36 34 34 33 34 34 34 33 33 33 40 38 37 41 40 42 45 45 43 43 42 42 42 41 40 40 40
36 36 35 36 36 37 34 34 33 34 31 34 32 32 32 33 34 34 34 34 35 37 35 33 39 37 42 47 44 43 42 42 42 41 40 39 39 39
33 34 34 33 34 35 35 33 32 32 33 33 33 34 34 35 35 35 34 34 35 35 36 31 38 37 42 46 45 44 43 42 41 40 40 39 39 38
33 33 33 32 32 34 34 33 33 32 33 33 33 32 32 32 33 33 32 31 31 33 36 33 35 36 39 41 44 44 42 42 40 40 40 39 39 38
32 32 31 31 31 32 32 32 32 32 34 34 35 35 33 35 31 32 31 28 28 28 35 30 32 32 31 40 41 42 43 40 40 40 40 40 39 39
33 32 31 31 31 32 32 32 30 33 33 34 34 34 34 34 34 34 32 29 27 26 33 28 28 28 28 29 35 38 39 39 40 42 40 40 39 39
32 33 33 31 32 31 32 30 30 31 33 32 32 32 31 31 31 32 31 30 30 27 29 28 24 24 25 25 27 35 36 38 38 38 40 41 39 38
34 31 33 34 34 31 29 29 31 31 30 28 28 29 30 31 31 31 31 31 31 31 32 31 28 27 26 24 25 29 30 34 37 37 38 39 39 38
33 35 33 32 31 31 33 32 31 30 28 27 26 28 29 28 27 28 26 27 25 26 31 33 31 29 26 27 28 27 31 28 34 36 37 38 39 40
33 33 31 30 30 30 30 29 29 28 25 25 24 24 24 24 23 25 24 24 21 22 24 28 31 31 30 28 25 28 28 29 33 33 34 34 36 36
30 28 26 25 24 25 25 25 26 24 23 22 22 21 20 19 19 20 21 20 18 19 20 23 24 23 25 27 30 27 28 28 31 32 33 31 33 34
26 25 23 22 22 23 23 22 20 21 21 19 19 18 18 17 17 17 17 18 17 18 19 21 21 19 16 15 26 31 22 23 24 25 29 30 28 30
24 22 21 21 21 21 20 19 18 18 18 17 16 16 16 15 14 14 15 15 15 15 16 19 19 19 15 14 16 21 27 23 23 24 27 30 28 32
21 21 21 20 19 19 17 17 16 16 15 15 15 15 14 14 13 14 14 14 13 15 14 15 19 21 22 22 17 19 25 29 28 26 26 24 22 30
19 19 19 18 17 17 16 16 15 14 14 14 13 13 13 13 12 13 13 13 13 14 15 18 21 21 19 17 16 17 21 25 29 30 29 27 22 27
16 17 16 16 16 16 15 14 13 12 13 13 12 12 12 11 13 13 13 14 14 14 15 15 17 19 17 17 17 18 19 21 24 23 25 30 30 31

GFSNE_sfc_temp_102.txt.gz
Temp
59 60 61 61 59 59 59 58 55 51 51 55 56 61 60 60 59 58 58 56 50 50 50 52 55 56 57 57 58 58 59 60 60 60 60 60 60 61
60 60 60 61 61 60 61 60 58 55 52 58 58 60 58 58 58 56 57 54 50 49 49 49 51 53 54 54 55 55 56 57 57 58 58 58 58 59
62 61 61 62 60 61 60 60 58 56 53 57 59 58 56 54 56 55 54 54 54 48 47 48 48 49 50 50 51 51 52 53 53 54 55 56 57 57
61 61 61 62 60 60 60 58 57 57 55 53 56 55 53 53 53 52 52 55 54 52 48 47 47 47 47 45 45 45 46 47 48 49 50 51 53 53
62 61 61 59 58 56 56 56 57 56 54 52 52 54 50 45 46 46 45 46 49 45 43 44 44 44 44 43 43 43 43 43 43 43 44 44 46 48
60 48 43 41 41 42 48 47 49 50 51 50 49 47 40 40 40 39 40 41 42 47 45 42 42 42 42 42 41 42 42 42 41 41 41 41 41 43
42 41 39 38 37 37 38 36 39 41 42 40 38 36 35 35 35 37 37 35 37 40 40 40 40 41 41 41 41 41 41 41 41 41 41 41 41 41
38 37 37 38 36 36 35 35 34 35 34 34 33 33 32 32 33 32 32 32 32 37 36 33 38 36 38 39 41 40 40 40 40 41 41 41 40 40
35 35 35 36 36 36 35 35 34 34 31 33 31 31 31 32 33 32 32 32 32 35 33 32 35 34 38 42 41 41 40 40 40 41 40 40 40 39
33 33 32 32 33 35 35 33 31 32 32 33 31 31 32 33 32 32 31 32 32 33 35 29 32 33 35 38 41 42 42 41 42 41 40 40 39 39
31 32 32 31 33 35 33 31 31 32 34 34 34 33 33 33 33 30 29 27 26 30 32 29 31 31 33 34 37 41 42 41 40 41 41 40 39 39
31 31 32 31 33 33 31 29 27 27 31 31 33 34 35 35 32 30 28 25 25 26 28 25 26 27 24 30 31 34 35 35 35 35 36 37 39 38
31 30 31 32 32 33 32 28 28 29 31 30 30 30 31 30 29 29 28 25 22 22 28 25 23 24 24 24 27 30 31 33 34 34 36 38 39 38
29 30 30 34 32 31 30 31 32 30 28 27 26 25 25 25 26 27 27 27 26 25 28 26 21 22 21 21 21 26 27 29 30 31 33 35 36 39
30 32 33 33 33 30 31 31 28 25 24 21 21 21 23 24 26 25 26 26 26 26 29 27 25 26 24 22 21 22 23 26 29 30 29 30 31 33
31 30 29 29 28 28 28 27 26 24 21 19 18 20 22 21 20 22 19 20 18 19 25 26 25 24 21 22 22 21 23 21 26 28 29 30 31 33
27 26 24 23 22 23 22 23 22 21 17 17 17 17 17 18 17 19 18 17 14 16 17 22 24 23 22 22 19 21 21 22 24 24 23 25 29 31
24 19 17 16 17 18 17 17 18 17 17 17 15 15 14 14 14 15 16 14 13 14 15 17 18 16 18 21 25 19 19 19 21 22 23 21 23 28
19 17 14 13 14 16 15 15 13 15 17 15 13 13 13 13 12 12 13 13 12 13 13 15 15 14 11 7 17 25 17 19 19 18 21 22 21 24
19 15 13 13 14 15 14 14 13 13 12 13 11 11 10 10 10 10 11 9 10 12 13 15 15 14 10 8 10 15 25 19 18 18 19 22 24 29
16 16 14 13 13 14 9 9 8 8 7 6 8 8 8 10 8 9 10 10 10 12 10 11 15 19 18 17 11 12 17 25 25 21 21 19 19 21
13 13 13 13 10 10 7 5 7 6 8 8 6 7 7 8 7 8 8 9 10 10 11 14 17 17 15 13 11 11 14 17 23 26 27 26 20 17
10 11 10 8 9 8 9 7 6 3 7 7 8 7 6 6 8 9 9 9 10 10 11 11 13 14 13 14 13 12 13 15 17 17 19 26 26 26

GFSNE_sfc_temp_105.txt.gz
Temp
59 59 59 59 58 58 58 56 55 51 52 52 53 58 60 58 57 58 59 56 51 50 50 52 53 54 55 56 58 58 59 60 60 60 60 60 61 60
60 60 59 60 58 57 57 57 56 56 53 57 56 56 55 57 57 56 57 54 52 50 49 49 51 52 53 53 54 54 56 57 58 58 59 59 59 60
58 58 58 59 58 57 57 58 57 56 54 58 58 60 54 54 55 56 56 56 55 49 47 47 48 48 49 50 50 51 51 52 53 54 55 56 57 57
58 58 58 59 57 58 57 57 57 57 56 55 58 57 53 53 53 54 54 55 55 52 47 47 47 46 46 46 46 46 47 48 48 50 51 51 50 51
59 57 53 51 53 49 51 52 52 53 53 51 49 51 49 44 45 45 44 45 48 47 44 43 44 45 45 45 44 45 45 44 43 43 44 45 46 47
47 44 42 41 41 43 43 41 43 44 45 44 44 40 39 40 40 38 39 41 41 46 45 42 42 42 42 42 42 42 42 42 42 41 41 40 40 42
40 40 39 39 38 37 39 36 38 38 37 37 34 35 34 34 33 35 34 35 37 38 38 40 40 41 41 42 42 42 41 41 41 41 40 40 39 40
37 37 37 37 36 35 34 34 34 34 32 33 31 31 31 32 33 33 33 32 31 37 34 33 37 36 38 39 40 40 40 40 40 40 40 39 38 38
35 34 34 34 34 34 33 34 34 33 31 32 30 29 29 30 30 30 29 29 29 33 33 31 30 31 36 40 40 41 40 40 40 39 39 38 38 37
32 32 31 31 33 32 33 32 32 32 32 32 30 29 29 32 29 29 28 28 29 31 28 25 30 28 31 34 38 39 37 35 35 35 36 37 38 37
31 31 31 31 32 35 31 29 28 29 34 36 36 35 34 32 31 27 23 21 20 24 26 23 26 25 27 28 31 34 35 35 35 36 34 34 34 35
30 31 33 32 33 32 28 27 25 26 28 28 29 30 31 30 30 27 24 20 20 17 24 20 22 22 18 25 26 27 28 32 34 35 36 35 35 34
30 30 31 33 32 32 31 28 27 27 27 26 25 24 24 24 25 25 24 21 19 19 25 23 21 22 21 20 25 26 27 27 27 29 32 34 35 34
29 28 30 32 32 30 28 29 27 25 22 21 20 20 20 20 22 22 23 23 23 21 23 22 15 18 18 16 17 23 24 26 25 26 27 31 32 32
29 31 31 31 29 27 27 26 23 20 17 15 15 16 18 20 21 21 22 22 22 23 25 23 20 20 18 15 16 18 18 22 25 24 24 25 27 28
27 25 25 25 23 23 22 22 20 18 16 15 14 15 18 17 16 18 16 17 15 16 23 22 21 19 15 16 17 16 19 16 20 20 21 22 24 26
22 22 20 20 18 18 18 18 17 17 14 14 13 13 14 14 14 16 15 14 11 12 14 18 21 20 19 19 15 18 16 16 18 19 20 20 22 24
20 15 12 12 13 14 12 12 14 13 14 14 11 12 11 11 11 12 13 11 9 11 11 14 15 14 15 18 21 15 14 14 16 19 20 17 18 23
15 13 10 6 9 12 12 11 10 12 13 11 10 9 9 10 9 9 10 9 9 10 11 13 13 11 7 4 15 22 15 16 16 16 18 18 17 20
15 11 9 8 11 11 11 10 9 8 7 8 5 4 2 7 6 6 8 6 7 9 10 12 12 11 8 7 8 12 22 15 15 14 15 18 21 25
12 12 10 9 9 9 2 1 -6 -2 -4 -5 0 2 -3 4 4 6 7 6 7 8 7 8 12 16 15 13 8 9 13 22 21 17 17 15 15 17
9 9 9 7 4 4 -2 -4 -2 -5 -0 2 -6 -9 -8 2 3 4 5 5 6 7 8 11 13 13 11 10 7 8 11 14 20 23 24 22 15 12
1 5 4 2 4 0 4 -2 -3 -10 -2 -2 -4 2 -4 1 4 5 4 4 6 6 6 7 10 12 11 11 10 10 11 12 14 15 17 24 25 25

GFSNE_sfc_temp_108.txt.gz
Temp
58 58 58 57 57 57 57 56 55 51 51 52 51 55 58 58 58 59 60 55 52 51 51 51 53 55 55 56 57 58 59 59 60 59 59 60 60 60
59 58 57 58 58 57 58 57 56 56 52 59 56 54 55 57 56 56 56 53 51 49 49 49 50 51 52 53 54 54 55 56 57 57 58 58 59 59
59 59 59 59 58 58 57 57 56 55 53 57 59 60 52 54 54 54 54 55 54 48 45 46 46 47 47 48 49 50 51 52 53 54 55 56 58 59
58 57 57 58 57 58 55 54 55 56 55 54 57 55 52 50 47 47 47 50 49 47 45 44 44 44 44 44 44 45 46 46 47 48 50 52 54 56
58 56 54 51 52 47 48 47 47 49 48 47 47 44 43 41 40 43 43 44 45 46 44 44 43 43 43 42 42 43 43 43 43 44 44 46 47 50
45 42 41 40 40 42 41 40 42 43 42 41 40 38 37 39 37 34 35 36 37 41 41 40 40 42 43 42 42 42 42 42 42 42 41 41 41 43
40 39 38 38 38 37 37 36 38 37 37 35 33 33 32 31 31 33 32 32 33 36 33 35 36 37 38 40 40 41 41 41 41 40 40 40 40 40
36 35 36 36 35 34 34 34 33 33 32 32 30 30 29 29 30 29 29 27 27 33 31 31 32 32 33 35 37 38 39 36 35 36 36 36 38 38
34 34 34 34 34 34 33 33 33 33 31 31 28 28 28 28 29 27 26 25 23 27 25 24 27 25 29 34 35 38 36 36 36 36 35 34 33 34
32 32 32 32 32 32 31 30 31 32 32 31 30 29 28 28 26 25 22 22 24 25 24 17 24 23 26 28 33 34 34 34 34 34 35 35 35 34
31 30 30 29 31 33 30 28 28 28 33 33 32 31 31 30 28 22 20 18 17 21 23 19 21 21 23 23 26 31 32 32 32 33 33 33 34 35
30 30 31 30 31 30 28 26 23 24 25 24 24 25 26 25 26 22 19 15 15 13 20 16 19 18 14 22 23 25 25 28 29 30 31 32 33 30
29 28 30 30 30 30 28 25 23 24 23 22 22 21 21 21 21 21 20 16 13 14 21 17 16 17 16 16 21 22 22 22 23 25 29 30 30 30
28 28 28 29 29 27 25 25 24 21 20 18 17 16 16 17 19 19 21 20 20 19 21 19 6 15 14 11 12 19 20 21 21 21 22 25 26 27
28 28 28 27 26 24 24 23 20 17 15 13 12 13 15 17 19 19 20 20 20 21 22 21 17 17 15 11 12 14 15 19 21 18 20 20 20 22
25 24 23 23 21 20 20 20 18 17 14 12 11 13 15 15 14 15 13 14 12 13 20 20 19 18 13 15 16 14 17 13 17 17 18 19 21 22
21 20 19 18 16 16 16 16 16 15 12 12 11 11 11 12 11 13 13 12 8 9 11 15 19 19 18 17 12 14 15 14 16 16 17 17 19 20
17 14 12 12 12 12 11 11 12 11 11 12 9 9 8 8 8 10 10 8 7 8 9 12 13 11 13 15 19 14 13 12 14 16 17 14 15 19
13 11 9 8 10 12 11 10 7 9 11 9 7 6 6 7 6 6 7 7 6 8 9 11 10 8 4 1 12 20 12 13 13 13 15 14 13 16
13 10 9 9 10 9 9 7 6 4 3 5 2 -1 -3 3 3 4 5 4 5 6 7 9 9 8 5 4 5 10 19 14 12 11 12 15 18 22
12 10 9 8 6 5 -6 -8 -11 -8 -9 -11 -5 -3 -10 -0 1 2 3 3 3 5 4 6 9 13 12 12 6 7 12 20 19 15 15 13 13 15
8 7 7 4 -0 -2 -10 -13 -8 -10 -6 -3 -10 -13 -11 -5 -0 0 1 0 1 4 4 7 10 11 9 7 5 6 9 13 18 21 22 20 14 8
-2 3 0 -0 -0 -5 -0 -8 -9 -16 -7 -4 -5 -4 -12 -6 -0 -0 -1 0 2 2 3 4 7 8 7 8 7 7 9 11 14 15 17 23 24 24

GFSNE_sfc_temp_111.txt.gz
Temp
57 56 56 56 55 56 55 55 53 50 53 55 51 54 55 55 55 57 58 55 51 50 49 50 52 53 53 54 55 56 57 57 57 58 59 60 61 61
56 56 56 57 57 56 56 56 55 54 52 57 55 53 54 55 54 53 54 52 48 45 45 46 47 48 48 48 49 50 51 52 53 54 55 57 58 59
56 56 57 58 57 57 56 56 55 55 52 57 55 55 51 50 48 49 49 48 48 44 44 44 44 44 44 44 44 45 46 46 47 48 50 51 53 54
56 56 56 57 56 56 55 55 54 54 54 53 54 46 42 44 44 42 44 45 44 44 43 42 42 42 43 42 43 43 43 43 43 44 44 46 46 48
56 55 51 50 50 48 48 47 47 48 47 47 44 42 40 38 39 39 39 39 41 43 41 41 40 41 41 41 41 41 41 41 41 41 41 41 42 43
44 42 41 41 42 43 41 41 43 42 41 40 38 35 34 35 35 32 33 34 34 39 38 38 39 39 39 38 38 39 39 39 38 38 37 36 36 37
39 38 38 38 37 37 37 36 37 37 36 34 33 32 30 30 28 30 29 30 32 31 30 31 32 32 32 32 35 36 38 38 37 37 37 37 36 36
35 35 36 36 35 35 35 34 33 33 31 30 29 28 27 28 29 27 26 24 23 29 25 25 28 26 27 30 33 34 36 35 35 35 35 35 35 35
35 34 34 34 34 33 33 33 32 33 31 30 26 25 23 23 25 23 21 21 21 25 22 21 24 23 26 30 31 33 34 33 33 33 33 33 34 34
33 33 32 32 32 31 30 29 30 29 29 29 26 26 25 24 23 23 21 20 22 23 21 13 21 21 23 25 30 32 31 31 31 31 31 31 32 33
30 31 31 31 32 32 28 27 26 27 30 30 29 28 28 27 25 19 16 14 13 18 19 15 18 18 20 21 24 28 29 28 29 29 29 30 31 31
30 30 31 29 30 29 27 25 22 22 23 23 22 23 23 23 23 21 17 12 12 9 17 14 16 16 12 21 21 22 21 25 26 26 27 28 29 26
28 27 28 28 28 27 26 24 22 23 22 21 20 19 20 19 19 19 19 15 12 11 19 17 14 15 13 13 18 19 19 20 20 21 25 25 27 26
26 26 26 26 26 25 24 24 23 20 19 17 16 15 15 15 17 18 19 19 19 17 20 18 4 12 11 10 10 17 18 19 19 20 19 22 24 24
26 26 26 25 24 22 22 21 19 17 14 12 12 12 14 16 17 17 18 18 17 18 20 19 16 16 13 10 10 12 13 16 19 18 17 18 18 19
23 22 21 20 19 19 19 18 17 16 14 11 11 12 14 13 12 13 11 12 10 11 17 18 18 16 12 13 13 11 14 11 16 17 17 17 18 19
20 19 17 17 16 15 15 15 15 14 11 10 10 10 10 10 9 11 10 10 7 7 9 13 16 17 15 14 10 12 12 13 14 15 15 13 17 18
17 14 12 12 12 12 10 10 11 11 10 10 7 7 5 5 6 7 8 6 5 6 7 9 10 9 10 13 17 12 11 11 13 14 15 11 12 16
13 11 10 10 10 10 10 9 7 8 9 7 4 3 3 4 3 4 5 5 4 5 6 8 7 6 2 -1 10 18 11 11 12 11 13 12 11 14
13 10 8 8 9 8 8 6 5 3 2 4 -0 -3 -7 0 0 1 2 1 1 3 4 7 7 6 2 1 3 8 18 12 11 10 11 14 16 21
11 9 8 8 6 5 -2 -4 -10 -8 -9 -11 -8 -7 -12 -3 -2 0 0 -0 -1 2 1 3 6 10 10 10 3 5 10 18 17 14 13 12 11 13
9 8 7 4 2 0 -8 -11 -9 -11 -9 -7 -12 -16 -14 -10 -4 -2 -2 -3 -1 1 2 4 7 8 7 5 3 5 8 13 18 21 22 21 14 10
0 4 2 1 0 -3 1 -8 -10 -19 -11 -9 -7 -5 -13 -9 -2 -2 -2 -2 -0 -0 1 1 4 6 5 6 6 7 9 11 14 17 21 24 24 24

GFSNE_sfc_temp_114.txt.gz
Temp
56 56 56 56 55 55 54 54 52 48 51 55 54 56 56 55 54 55 55 46 46 46 46 47 48 48 48 48 49 50 50 51 52 52 53 54 55 56
57 57 56 56 56 55 55 54 54 53 50 56 55 56 52 53 49 49 48 46 44 43 43 44 44 45 45 45 45 46 46 47 47 48 49 50 51 52
57 57 56 57 56 56 55 55 55 55 52 55 55 49 45 45 44 46 45 44 43 42 41 42 42 42 42 42 42 42 43 43 43 44 45 46 47 48
56 56 55 56 55 56 55 55 55 55 54 53 48 43 39 42 40 40 41 42 43 41 40 40 41 41 40 40 40 39 41 41 40 40 41 41 41 42
56 55 55 54 54 51 50 50 48 48 46 47 40 39 37 36 37 37 36 36 41 40 39 38 39 40 38 37 37 37 38 39 39 38 38 38 38 39
45 44 44 46 46 45 43 43 43 41 41 40 36 34 34 34 33 30 31 33 33 35 35 35 36 36 35 35 35 36 36 38 37 36 36 35 36 36
39 38 38 39 39 39 39 39 39 37 36 34 32 31 29 29 27 28 28 29 30 29 29 30 32 31 31 31 32 34 35 36 35 35 34 34 34 34
35 35 36 36 35 35 35 34 35 34 31 31 29 25 24 25 26 24 24 23 22 29 25 25 28 26 28 29 31 32 34 34 33 33 33 32 32 32
34 34 34 34 34 33 33 32 31 31 30 28 24 24 21 22 24 22 21 21 22 25 22 21 25 23 26 29 29 31 32 31 31 30 30 30 30 30
34 33 32 31 32 31 29 27 26 27 27 28 25 24 24 23 23 22 20 20 23 24 21 15 22 21 24 26 28 30 30 30 29 29 29 29 29 30
32 32 32 30 32 33 28 25 25 26 29 29 28 28 27 26 24 20 17 15 14 19 20 16 19 18 21 24 26 27 27 27 26 27 27 28 28 29
29 29 30 29 30 29 26 24 21 22 23 22 23 23 24 23 23 21 18 13 13 11 19 14 17 16 12 21 22 23 23 24 25 25 26 26 27 26
26 26 26 28 28 27 26 23 21 22 20 20 20 19 20 20 19 20 20 17 13 13 20 17 14 15 14 14 18 21 21 22 22 23 24 25 25 25
24 24 25 26 26 24 23 22 21 19 19 17 16 15 15 16 17 18 19 19 19 17 20 19 12 13 12 10 11 19 19 21 21 20 21 23 23 23
25 26 26 25 23 22 21 20 18 16 15 13 12 12 14 16 17 16 17 18 17 18 19 19 16 15 14 11 10 13 13 17 20 20 19 20 20 20
22 20 19 19 18 17 17 17 16 15 13 12 11 13 14 13 12 13 12 12 10 12 17 18 17 15 12 13 13 12 15 12 17 18 19 18 20 20
19 18 16 16 15 14 14 14 15 14 11 11 10 10 10 10 9 11 10 10 7 8 9 13 16 16 15 13 10 13 13 14 17 16 16 14 17 19
17 14 12 12 12 12 11 11 11 10 10 10 7 7 6 6 6 8 9 6 5 6 7 9 10 9 11 14 18 14 13 13 14 15 15 12 13 18
13 12 10 10 10 11 10 9 8 8 9 7 5 4 3 5 4 5 5 5 4 5 6 8 8 7 2 -0 11 19 11 11 12 12 14 14 12 15
13 11 10 10 10 9 9 8 6 4 4 5 2 1 -2 2 1 2 3 1 1 3 4 7 7 6 3 1 3 9 17 13 13 12 14 17 19 22
11 10 9 8 7 5 2 1 0 0 -1 -2 -2 -2 -6 -2 -1 1 1 -1 -1 3 2 4 7 10 10 10 5 8 13 20 20 17 18 17 16 17
9 8 7 6 4 2 -2 -3 -2 -3 -2 -0 -5 -6 -6 -4 -2 -2 -1 -1 0 2 3 6 9 9 8 7 5 7 11 16 21 25 27 24 19 14
6 5 5 4 3 2 3 -3 -2 -8 -3 -2 -3 -2 -8 -5 -1 -1 -1 0 0 1 2 3 6 7 7 8 8 9 10 12 17 20 27 30 30 28

GFSNE_sfc_temp_117.txt.gz
Temp
61 61 61 61 61 60 60 58 56 52 55 61 58 58 57 52 52 49 47 45 45 44 45 46 47 47 47 47 47 47 48 48 49 49 50 51 52 52
60 60 59 58 58 57 56 57 55 54 51 61 56 51 51 49 47 47 46 44 43 42 42 43 43 44 43 43 43 43 44 45 45 45 46 46 47 48
58 57 57 57 56 56 56 56 55 54 52 56 54 47 44 43 44 44 44 42 41 40 41 42 42 40 40 40 40 40 41 41 42 42 42 43 43 44
57 57 56 57 57 57 56 56 56 56 55 53 47 40 40 40 40 38 39 42 40 39 38 40 40 39 38 38 38 38 38 39 40 40 40 39 40 40
58 57 58 57 56 56 56 55 54 51 51 51 39 39 35 37 36 37 35 37 39 38 37 36 38 37 36 36 36 36 36 37 38 37 36 36 36 37
56 56 56 56 55 53 50 48 46 45 44 41 37 34 34 33 32 31 31 33 32 35 35 35 34 35 35 34 35 35 35 36 36 35 35 34 34 34
40 40 40 40 39 40 42 42 42 40 38 35 32 30 29 27 27 28 28 29 29 31 31 36 38 37 38 36 36 33 34 35 34 34 34 33 32 33
35 35 36 36 34 34 33 33 35 35 32 30 26 24 24 26 25 25 25 26 27 35 32 33 34 34 36 36 32 32 33 33 33 32 32 31 32 31
34 34 33 34 33 31 31 31 30 30 29 28 24 23 21 23 25 24 25 27 31 32 29 30 34 31 34 35 32 31 32 32 31 31 30 30 30 30
33 33 32 31 31 30 28 26 25 26 26 27 25 24 24 25 27 26 26 28 33 32 29 23 31 29 32 34 32 31 30 30 30 29 29 29 29 29
32 32 31 30 31 32 27 25 24 24 28 28 27 26 25 24 25 25 24 24 24 27 27 23 27 27 29 31 34 31 30 29 29 28 28 28 28 28
29 30 31 29 30 30 27 25 21 22 23 23 22 22 24 23 23 23 22 18 19 22 25 20 23 24 20 29 30 31 31 29 29 28 28 28 28 29
27 27 28 29 28 28 27 25 22 23 21 22 22 22 23 24 24 23 23 20 18 20 26 23 21 22 21 21 26 29 31 31 31 30 29 28 27 27
24 25 26 27 27 25 24 24 23 22 22 22 21 19 18 21 24 24 24 24 24 22 25 23 18 19 18 18 20 28 29 29 29 28 29 28 26 26
25 26 26 25 24 22 22 21 20 19 18 18 17 18 20 22 22 22 23 23 23 23 24 24 22 22 20 19 20 23 22 25 28 27 26 26 25 25
22 20 20 20 19 19 18 18 20 21 20 19 18 20 21 20 19 20 19 19 19 21 24 24 22 21 18 20 21 20 24 20 27 26 25 24 26 27
19 19 17 18 17 17 17 19 20 20 17 18 18 18 18 18 17 18 17 18 17 17 18 22 23 23 22 20 18 22 23 23 25 24 23 22 25 29
21 19 17 17 17 16 15 15 17 16 16 16 15 15 15 15 15 17 16 16 15 16 17 19 19 19 21 24 23 22 21 22 22 23 24 21 24 29
19 16 16 16 17 17 16 16 14 14 15 14 13 12 13 14 14 15 15 15 15 16 17 18 17 16 12 11 21 22 19 19 21 24 26 25 24 28
18 16 16 17 17 16 16 15 14 14 13 13 12 11 10 12 13 13 14 11 12 14 16 18 17 15 10 9 10 17 21 20 21 22 25 30 33 31
17 17 16 16 16 15 13 13 12 11 11 11 10 10 9 11 11 12 13 9 9 14 13 14 16 15 18 18 15 18 23 26 25 23 26 29 29 31
16 15 15 15 13 13 12 11 11 12 11 11 10 10 10 11 11 11 11 11 12 12 13 16 18 18 17 15 15 16 22 24 28 29 31 30 27 25
14 14 13 12 13 12 13 12 11 11 11 10 10 10 8 10 11 12 11 11 11 11 13 13 16 18 17 17 16 19 20 22 27 28 32 32 31 30

GFSNE_sfc_temp_120.txt.gz
Temp
69 71 73 74 73 73 70 68 64 56 59 61 58 60 52 51 50 49 47 44 44 44 45 46 46 46 45 45 46 46 47 47 46 47 48 48 49 49
70 69 70 68 66 65 65 66 65 62 57 62 55 50 49 47 47 46 44 43 42 42 43 42 42 42 42 42 42 42 42 43 44 44 44 45 45 45
68 68 66 64 61 61 61 60 60 60 54 54 51 46 44 42 42 43 42 39 38 40 41 40 40 39 39 39 39 39 40 40 41 42 41 41 42 42
65 64 63 61 60 59 59 60 57 57 55 54 47 40 39 39 38 37 40 40 37 36 38 39 39 38 37 37 37 37 37 38 39 38 38 38 38 39
62 62 61 58 56 56 56 56 56 55 55 53 40 38 36 37 35 35 35 36 38 36 37 36 36 36 36 36 37 36 36 37 37 36 36 36 36 36
58 58 57 56 57 56 56 56 54 50 46 40 35 34 33 32 31 31 30 33 33 35 36 37 37 37 37 38 38 35 35 36 35 35 35 34 34 34
44 43 42 43 42 45 49 46 45 41 38 35 32 30 28 27 26 28 29 31 29 31 34 37 38 41 44 42 40 35 34 35 34 34 34 33 33 33
36 35 35 36 35 34 34 34 37 37 33 30 28 26 25 25 26 25 26 28 28 33 33 37 41 42 42 41 36 34 33 34 33 33 33 32 32 31
35 34 33 33 32 31 30 30 30 30 30 29 25 24 24 26 27 26 28 31 30 31 31 33 39 37 38 37 36 34 33 33 33 32 32 31 31 31
33 32 31 30 30 29 27 25 25 26 27 27 25 25 26 29 29 29 29 31 35 36 32 25 33 31 34 36 36 35 34 33 33 33 32 32 31 30
31 31 30 29 31 32 27 25 25 25 29 29 28 27 27 27 29 29 28 30 29 34 32 28 32 32 35 36 39 35 34 34 33 33 33 32 31 31
29 29 30 29 30 29 27 25 22 22 23 24 24 25 26 27 28 31 30 26 28 29 30 26 29 30 26 35 35 36 36 35 35 34 33 33 32 33
28 28 29 30 30 29 29 26 24 25 24 24 25 25 28 28 28 29 30 29 27 28 28 28 26 28 27 28 32 35 37 36 36 37 34 34 32 32
27 27 28 29 28 27 26 26 25 25 25 24 24 25 27 28 30 31 30 30 30 27 29 28 25 26 25 24 25 33 35 35 36 36 36 35 33 33
26 27 28 27 26 25 25 25 24 25 24 24 25 27 27 28 29 28 30 29 29 29 29 28 27 27 26 24 25 28 28 34 37 35 34 33 34 35
24 22 22 21 21 22 23 24 25 27 26 26 25 27 28 27 25 26 26 27 28 28 31 30 29 27 25 27 28 28 33 29 34 33 32 34 37 38
20 20 21 22 24 24 25 26 27 27 23 24 24 24 24 24 24 26 26 26 25 26 27 30 31 31 31 29 27 31 30 31 33 31 31 32 36 37
24 24 24 25 25 25 23 22 23 22 22 23 22 23 23 23 24 25 26 25 24 24 26 27 27 27 29 32 28 28 28 28 29 30 32 31 32 38
24 22 20 21 22 23 22 21 19 21 22 23 22 22 23 23 24 23 24 23 22 24 26 27 26 23 20 20 29 27 25 26 26 28 31 33 31 37
26 24 22 23 24 23 22 22 22 22 22 22 21 20 21 22 22 22 23 19 20 23 24 27 25 22 17 17 17 24 27 26 26 26 27 32 37 35
25 25 25 25 24 24 22 22 21 20 20 20 20 20 19 22 20 21 21 17 18 22 21 22 24 21 25 26 22 25 29 31 31 27 29 29 30 33
24 24 24 23 22 22 21 19 19 20 20 21 20 20 20 21 20 20 20 19 20 20 21 24 26 26 26 24 23 23 28 31 34 34 32 31 29 26
22 22 22 21 21 21 22 21 21 20 19 19 20 20 18 19 20 21 20 20 20 19 21 21 24 26 25 26 24 25 26 29 31 32 34 34 32 32

GFSNE_sfc_temp_123.txt.gz
Temp
62 68 69 73 74 75 76 74 68 60 60 61 58 56 55 52 49 47 46 44 45 45 45 45 45 45 44 44 44 44 45 46 46 47 46 46 47 47
64 68 69 72 72 74 74 74 71 65 58 62 53 50 49 47 45 43 43 43 43 42 42 42 42 42 42 42 42 42 42 43 44 44 44 43 44 44
66 67 67 69 70 70 69 69 64 64 60 54 49 45 44 43 42 41 39 37 38 40 40 40 39 39 39 39 39 39 39 41 41 40 40 41 41 42
63 65 66 67 66 66 65 62 62 63 60 53 44 41 39 39 39 40 39 38 36 36 38 38 38 38 38 38 38 37 37 38 38 38 38 38 38 39
62 65 67 67 64 62 61 60 60 55 56 51 41 38 36 36 34 35 35 35 36 36 37 36 37 37 38 38 38 36 36 36 36 36 36 36 36 36
59 62 64 64 62 60 58 56 54 53 51 43 37 34 33 31 32 31 30 33 31 36 36 37 37 38 38 40 37 37 35 36 36 35 35 34 34 34
55 53 54 53 45 47 54 53 53 45 42 38 33 31 29 28 28 29 29 30 30 32 34 37 37 39 41 42 40 38 35 35 34 34 35 34 34 34
39 38 40 39 36 36 35 34 40 42 37 35 31 29 26 26 27 26 28 29 27 33 32 36 39 38 40 41 37 36 35 35 35 35 35 34 34 34
35 35 33 34 34 32 31 31 31 32 31 32 28 26 25 26 28 28 30 31 30 30 31 33 37 37 38 39 37 36 36 36 35 35 35 35 35 33
33 33 33 32 32 30 27 25 25 26 27 28 26 26 28 30 30 30 30 31 31 31 33 26 35 34 37 40 38 37 37 36 36 36 36 35 34 34
32 31 31 30 31 32 27 24 24 25 29 29 29 29 31 31 31 31 28 29 31 34 32 30 35 33 35 37 39 38 37 38 37 36 36 35 35 35
29 29 30 29 30 29 27 25 21 22 24 25 26 27 28 29 31 32 32 29 29 30 29 28 31 31 27 36 36 37 37 37 37 37 37 37 36 36
28 27 28 30 30 30 29 26 25 26 25 27 27 27 28 30 31 32 32 30 30 30 27 29 27 28 28 28 32 36 37 37 38 38 38 37 36 36
27 28 29 29 29 28 27 28 27 27 26 25 26 26 28 28 31 32 31 31 31 29 31 28 24 26 24 24 26 33 35 37 38 38 37 37 37 38
28 29 29 29 28 27 27 27 26 25 25 26 27 29 30 31 32 32 32 32 31 30 31 30 28 27 27 25 26 29 30 36 38 36 35 35 36 38
26 24 24 24 24 25 26 27 29 31 31 30 29 31 31 30 28 29 28 28 29 29 33 32 31 30 27 28 29 29 34 30 35 34 34 34 38 39
22 22 22 22 22 23 27 29 30 31 29 29 29 28 28 28 27 28 28 28 27 27 29 32 33 34 33 31 28 31 31 31 32 32 32 32 36 39
24 23 23 24 27 28 27 27 27 27 27 27 27 27 26 26 27 28 28 27 26 26 27 30 30 29 30 34 33 29 28 28 30 31 32 30 31 36
24 24 25 26 25 25 25 25 25 25 27 26 26 26 26 26 26 26 26 25 24 26 28 30 28 25 21 20 29 26 26 27 27 29 31 31 29 33
25 24 25 27 27 26 25 24 24 25 26 25 24 24 25 25 25 25 25 22 22 25 26 29 27 24 19 18 19 25 30 27 28 27 28 32 33 34
28 27 27 27 26 26 25 25 25 24 24 23 23 23 23 25 23 24 24 21 21 24 23 24 27 25 27 28 23 27 31 34 33 30 31 30 30 32
27 27 27 26 25 25 23 21 21 22 23 24 22 22 23 24 23 22 22 22 23 23 24 26 28 29 27 25 24 25 29 32 35 35 33 32 29 26
25 25 25 25 25 25 26 25 24 23 22 22 22 21 21 22 22 23 23 23 23 22 22 22 25 27 26 26 25 26 26 29 31 32 34 35 33 33